Time,TemperatureF,DewpointF,PressureIn,WindDirection,WindDirectionDegrees,WindSpeedMPH,WindSpeedGustMPH,Humidity,HourlyPrecipIn,Conditions,Clouds,dailyrainin,SoftwareType,DateUTC
2013-04-15 00:00:00,71.3,69.2,29.69,SSE,149,7.0,14.0,93,0.00,,---,0.00,VWS V14.01,2013-04-15 05:00:00,
2013-04-15 00:01:00,71.3,69.2,29.69,SSE,148,5.0,9.0,93,0.00,,---,0.00,VWS V14.01,2013-04-15 05:01:00,
2013-04-15 00:02:00,71.3,69.2,29.69,SSE,153,7.0,13.0,93,0.00,,---,0.00,VWS V14.01,2013-04-15 05:02:00,
2013-04-15 00:03:00,71.2,69.1,29.69,SSE,156,7.0,12.0,93,0.00,,---,0.00,VWS V14.01,2013-04-15 05:03:00,
2013-04-15 00:04:00,71.2,69.1,29.69,SE,140,9.0,12.0,93,0.00,,---,0.00,VWS V14.01,2013-04-15 05:04:00,
2013-04-15 00:05:00,71.2,69.1,29.69,SSE,154,7.0,12.0,93,0.00,,---,0.00,VWS V14.01,2013-04-15 05:05:00,
2013-04-15 00:06:00,71.2,69.1,29.69,SSE,159,7.0,11.0,93,0.00,,---,0.00,VWS V14.01,2013-04-15 05:06:00,
2013-04-15 00:07:00,71.2,69.1,29.69,SSE,155,13.0,13.0,93,0.00,,---,0.00,VWS V14.01,2013-04-15 05:07:00,
2013-04-15 00:08:00,71.1,69.0,29.69,SSE,160,6.0,16.0,93,0.00,,---,0.00,VWS V14.01,2013-04-15 05:08:00,
2013-04-15 00:09:00,71.1,69.0,29.69,SSE,153,7.0,12.0,93,0.00,,---,0.00,VWS V14.01,2013-04-15 05:09:00,
2013-04-15 00:10:00,71.2,69.1,29.69,South,183,8.0,12.0,93,0.00,,---,0.00,VWS V14.01,2013-04-15 05:10:00,
2013-04-15 00:11:00,71.1,69.0,29.69,SSE,156,6.0,16.0,93,0.00,,---,0.00,VWS V14.01,2013-04-15 05:11:00,
2013-04-15 00:12:00,71.1,69.0,29.69,South,172,12.0,13.0,93,0.00,,---,0.00,VWS V14.01,2013-04-15 05:12:00,
2013-04-15 00:13:00,71.1,69.0,29.69,SSE,150,11.0,12.0,93,0.00,,---,0.00,VWS V14.01,2013-04-15 05:13:00,
2013-04-15 00:14:00,71.1,69.0,29.68,SE,143,6.0,15.0,93,0.00,,---,0.00,VWS V14.01,2013-04-15 05:14:00,
2013-04-15 00:15:00,71.1,69.0,29.68,SE,129,12.0,15.0,93,0.00,,---,0.00,VWS V14.01,2013-04-15 05:15:00,
2013-04-15 00:16:00,71.1,69.0,29.69,SSE,161,5.0,10.0,93,0.00,,---,0.00,VWS V14.01,2013-04-15 05:16:00,
2013-04-15 00:17:00,71.1,69.0,29.68,South,169,10.0,12.0,93,0.00,,---,0.00,VWS V14.01,2013-04-15 05:17:00,
2013-04-15 00:18:00,71.1,69.0,29.68,SSE,150,9.0,13.0,93,0.00,,---,0.00,VWS V14.01,2013-04-15 05:18:00,
2013-04-15 00:19:00,71.1,69.0,29.68,SSE,157,10.0,15.0,93,0.00,,---,0.00,VWS V14.01,2013-04-15 05:19:00,
2013-04-15 00:20:00,71.1,69.0,29.68,South,173,15.0,15.0,93,0.00,,---,0.00,VWS V14.01,2013-04-15 05:20:00,
2013-04-15 00:21:00,71.1,69.0,29.68,SE,146,12.0,13.0,93,0.00,,---,0.00,VWS V14.01,2013-04-15 05:21:00,
2013-04-15 00:22:00,71.1,69.0,29.68,SE,134,9.0,14.0,93,0.00,,---,0.00,VWS V14.01,2013-04-15 05:22:00,
2013-04-15 00:23:00,71.1,69.3,29.68,SSE,148,10.0,15.0,94,0.00,,---,0.00,VWS V14.01,2013-04-15 05:23:00,
2013-04-15 00:24:00,71.1,69.0,29.68,SE,140,12.0,12.0,93,0.00,,---,0.00,VWS V14.01,2013-04-15 05:24:00,
2013-04-15 00:25:00,71.1,69.0,29.68,SSE,161,10.0,10.0,93,0.00,,---,0.00,VWS V14.01,2013-04-15 05:25:00,
2013-04-15 00:26:00,71.0,68.9,29.68,SSE,157,7.0,14.0,93,0.00,,---,0.00,VWS V14.01,2013-04-15 05:26:00,
2013-04-15 00:27:00,71.1,69.0,29.68,South,186,6.0,14.0,93,0.00,,---,0.00,VWS V14.01,2013-04-15 05:27:00,
2013-04-15 00:28:00,71.0,68.9,29.68,SSE,151,9.0,15.0,93,0.00,,---,0.00,VWS V14.01,2013-04-15 05:28:00,
2013-04-15 00:29:00,71.0,69.2,29.69,SSE,168,16.0,16.0,94,0.00,,---,0.00,VWS V14.01,2013-04-15 05:29:00,
2013-04-15 00:30:00,71.0,69.2,29.69,SSE,157,12.0,12.0,94,0.00,,---,0.00,VWS V14.01,2013-04-15 05:30:00,
2013-04-15 00:31:00,71.0,69.2,29.69,SE,134,12.0,14.0,94,0.00,,---,0.00,VWS V14.01,2013-04-15 05:31:00,
2013-04-15 00:32:00,71.1,69.0,29.68,SE,132,9.0,12.0,93,0.00,,---,0.00,VWS V14.01,2013-04-15 05:32:00,
2013-04-15 00:33:00,71.0,69.2,29.69,SE,139,7.0,12.0,94,0.00,,---,0.00,VWS V14.01,2013-04-15 05:33:00,
2013-04-15 00:34:00,71.0,69.2,29.69,South,173,14.0,14.0,94,0.00,,---,0.00,VWS V14.01,2013-04-15 05:34:00,
2013-04-15 00:35:00,71.0,69.2,29.69,SSE,151,14.0,14.0,94,0.00,,---,0.00,VWS V14.01,2013-04-15 05:35:00,
2013-04-15 00:36:00,71.0,69.2,29.69,SSE,153,13.0,14.0,94,0.00,,---,0.00,VWS V14.01,2013-04-15 05:36:00,
2013-04-15 00:37:00,71.0,69.2,29.69,South,184,9.0,14.0,94,0.00,,---,0.00,VWS V14.01,2013-04-15 05:37:00,
2013-04-15 00:38:00,71.0,69.2,29.69,South,181,18.0,18.0,94,0.00,,---,0.00,VWS V14.01,2013-04-15 05:38:00,
2013-04-15 00:39:00,71.0,69.2,29.69,SSE,165,5.0,19.0,94,0.00,,---,0.00,VWS V14.01,2013-04-15 05:39:00,
2013-04-15 00:40:00,71.0,69.2,29.69,SSE,157,12.0,19.0,94,0.00,,---,0.00,VWS V14.01,2013-04-15 05:40:00,
2013-04-15 00:41:00,71.0,69.2,29.69,South,173,12.0,15.0,94,0.00,,---,0.00,VWS V14.01,2013-04-15 05:41:00,
2013-04-15 00:43:00,71.0,69.2,29.69,SSE,149,14.0,18.0,94,0.00,,---,0.00,VWS V14.01,2013-04-15 05:43:00,
2013-04-15 00:44:00,71.0,69.2,29.69,SSE,147,10.0,17.0,94,0.00,,---,0.00,VWS V14.01,2013-04-15 05:44:00,
2013-04-15 00:45:00,71.1,69.3,29.69,South,171,6.0,17.0,94,0.00,,---,0.00,VWS V14.01,2013-04-15 05:45:00,
2013-04-15 00:46:00,71.1,69.3,29.69,SSE,152,12.0,13.0,94,0.00,,---,0.00,VWS V14.01,2013-04-15 05:46:00,
2013-04-15 00:47:00,71.1,69.3,29.69,SSE,150,12.0,14.0,94,0.00,,---,0.00,VWS V14.01,2013-04-15 05:47:00,
2013-04-15 00:48:00,71.1,69.3,29.69,South,180,13.0,14.0,94,0.00,,---,0.00,VWS V14.01,2013-04-15 05:48:00,
2013-04-15 00:49:00,71.1,69.3,29.69,SSE,151,10.0,16.0,94,0.00,,---,0.00,VWS V14.01,2013-04-15 05:49:00,
2013-04-15 00:50:00,71.1,69.3,29.69,SSE,168,12.0,16.0,94,0.00,,---,0.00,VWS V14.01,2013-04-15 05:50:00,
2013-04-15 00:53:00,71.1,69.3,29.69,SE,144,11.0,13.0,94,0.00,,---,0.00,VWS V14.01,2013-04-15 05:53:00,
2013-04-15 00:54:00,71.1,69.3,29.69,South,184,11.0,14.0,94,0.00,,---,0.00,VWS V14.01,2013-04-15 05:54:00,
2013-04-15 00:55:00,71.1,69.3,29.69,SSE,156,13.0,14.0,94,0.00,,---,0.00,VWS V14.01,2013-04-15 05:55:00,
2013-04-15 00:56:00,71.1,69.3,29.69,South,169,13.0,15.0,94,0.00,,---,0.00,VWS V14.01,2013-04-15 05:56:00,
2013-04-15 00:57:00,71.1,69.3,29.69,South,173,8.0,17.0,94,0.00,,---,0.00,VWS V14.01,2013-04-15 05:57:00,
2013-04-15 00:58:00,71.1,69.3,29.69,South,169,8.0,11.0,94,0.00,,---,0.00,VWS V14.01,2013-04-15 05:58:00,
2013-04-15 00:59:00,71.1,69.3,29.69,SSE,149,12.0,12.0,94,0.00,,---,0.00,VWS V14.01,2013-04-15 05:59:00,
2013-04-15 01:00:00,71.1,69.3,29.69,SSE,156,10.0,10.0,94,0.00,,---,0.00,VWS V14.01,2013-04-15 06:00:00,
2013-04-15 01:01:00,71.0,69.2,29.69,SSE,166,7.0,12.0,94,0.00,,---,0.00,VWS V14.01,2013-04-15 06:01:00,
2013-04-15 01:02:00,71.0,69.2,29.69,SSE,167,11.0,11.0,94,0.00,,---,0.00,VWS V14.01,2013-04-15 06:02:00,
2013-04-15 01:03:00,71.0,69.2,29.69,South,180,6.0,11.0,94,0.00,,---,0.00,VWS V14.01,2013-04-15 06:03:00,
2013-04-15 01:04:00,71.0,69.2,29.69,SSE,161,8.0,12.0,94,0.00,,---,0.00,VWS V14.01,2013-04-15 06:04:00,
2013-04-15 01:05:00,71.0,69.2,29.69,South,176,11.0,12.0,94,0.00,,---,0.00,VWS V14.01,2013-04-15 06:05:00,
2013-04-15 01:06:00,71.0,69.2,29.69,South,169,9.0,15.0,94,0.00,,---,0.00,VWS V14.01,2013-04-15 06:06:00,
2013-04-15 01:07:00,71.0,69.2,29.69,SSE,163,9.0,12.0,94,0.00,,---,0.00,VWS V14.01,2013-04-15 06:07:00,
2013-04-15 01:08:00,71.0,69.2,29.69,SSE,159,6.0,11.0,94,0.00,,---,0.00,VWS V14.01,2013-04-15 06:08:00,
2013-04-15 01:09:00,71.0,69.2,29.69,South,169,10.0,10.0,94,0.00,,---,0.00,VWS V14.01,2013-04-15 06:09:00,
2013-04-15 01:10:00,71.0,69.2,29.69,SSE,159,7.0,9.0,94,0.00,,---,0.00,VWS V14.01,2013-04-15 06:10:00,
2013-04-15 01:11:00,71.0,69.2,29.69,SSE,165,7.0,11.0,94,0.00,,---,0.00,VWS V14.01,2013-04-15 06:11:00,
2013-04-15 01:12:00,71.0,69.2,29.69,SSE,161,11.0,12.0,94,0.00,,---,0.00,VWS V14.01,2013-04-15 06:12:00,
2013-04-15 01:13:00,70.9,69.1,29.69,SE,134,5.0,11.0,94,0.00,,---,0.00,VWS V14.01,2013-04-15 06:13:00,
2013-04-15 01:14:00,70.9,69.1,29.69,South,181,6.0,10.0,94,0.00,,---,0.00,VWS V14.01,2013-04-15 06:14:00,
2013-04-15 01:15:00,71.0,69.2,29.69,SSE,157,6.0,10.0,94,0.00,,---,0.00,VWS V14.01,2013-04-15 06:15:00,
2013-04-15 01:16:00,70.9,69.1,29.69,South,176,9.0,12.0,94,0.00,,---,0.00,VWS V14.01,2013-04-15 06:16:00,
2013-04-15 01:17:00,70.9,69.1,29.69,SSE,167,10.0,14.0,94,0.00,,---,0.00,VWS V14.01,2013-04-15 06:17:00,
2013-04-15 01:18:00,70.9,69.1,29.69,SSE,152,6.0,12.0,94,0.00,,---,0.00,VWS V14.01,2013-04-15 06:18:00,
2013-04-15 01:19:00,70.9,69.1,29.69,SSE,164,12.0,13.0,94,0.00,,---,0.00,VWS V14.01,2013-04-15 06:19:00,
2013-04-15 01:20:00,70.9,69.1,29.69,SSE,167,13.0,13.0,94,0.00,,---,0.00,VWS V14.01,2013-04-15 06:20:00,
2013-04-15 01:21:00,70.9,69.1,29.69,SSE,163,6.0,13.0,94,0.00,,---,0.00,VWS V14.01,2013-04-15 06:21:00,
2013-04-15 01:22:00,70.9,69.1,29.69,SSE,159,10.0,12.0,94,0.00,,---,0.00,VWS V14.01,2013-04-15 06:22:00,
2013-04-15 01:23:00,70.9,69.1,29.69,South,179,11.0,13.0,94,0.00,,---,0.00,VWS V14.01,2013-04-15 06:23:00,
2013-04-15 01:24:00,70.9,69.1,29.69,South,175,12.0,15.0,94,0.00,,---,0.00,VWS V14.01,2013-04-15 06:24:00,
2013-04-15 01:25:00,70.9,69.1,29.69,SSE,165,15.0,15.0,94,0.00,,---,0.00,VWS V14.01,2013-04-15 06:25:00,
2013-04-15 01:26:00,70.9,69.1,29.69,SE,146,9.0,12.0,94,0.00,,---,0.00,VWS V14.01,2013-04-15 06:26:00,
2013-04-15 01:27:00,70.9,69.1,29.69,SSE,163,12.0,12.0,94,0.00,,---,0.00,VWS V14.01,2013-04-15 06:27:00,
2013-04-15 01:28:00,70.9,69.1,29.69,SSE,168,11.0,15.0,94,0.00,,---,0.00,VWS V14.01,2013-04-15 06:28:00,
2013-04-15 01:29:00,70.9,69.1,29.69,SE,144,8.0,14.0,94,0.00,,---,0.00,VWS V14.01,2013-04-15 06:29:00,
2013-04-15 01:30:00,70.9,69.1,29.69,South,176,13.0,14.0,94,0.00,,---,0.00,VWS V14.01,2013-04-15 06:30:00,
2013-04-15 01:31:00,71.0,69.2,29.69,SSE,163,9.0,13.0,94,0.00,,---,0.00,VWS V14.01,2013-04-15 06:31:00,
2013-04-15 01:32:00,70.9,69.1,29.69,SSE,163,10.0,11.0,94,0.00,,---,0.00,VWS V14.01,2013-04-15 06:32:00,
2013-04-15 01:33:00,70.9,69.1,29.69,SSE,149,11.0,11.0,94,0.00,,---,0.00,VWS V14.01,2013-04-15 06:33:00,
2013-04-15 01:34:00,70.9,69.1,29.69,SSE,167,10.0,11.0,94,0.00,,---,0.00,VWS V14.01,2013-04-15 06:34:00,
2013-04-15 01:35:00,70.9,69.1,29.69,SSE,152,8.0,11.0,94,0.00,,---,0.00,VWS V14.01,2013-04-15 06:35:00,
2013-04-15 01:36:00,70.9,69.1,29.69,South,187,12.0,12.0,94,0.00,,---,0.00,VWS V14.01,2013-04-15 06:36:00,
2013-04-15 01:37:00,70.9,69.1,29.69,SSE,163,11.0,14.0,94,0.00,,---,0.00,VWS V14.01,2013-04-15 06:37:00,
2013-04-15 01:38:00,70.9,69.1,29.69,South,182,12.0,13.0,94,0.00,,---,0.00,VWS V14.01,2013-04-15 06:38:00,
2013-04-15 01:39:00,70.9,69.1,29.69,SSE,159,9.0,13.0,94,0.00,,---,0.00,VWS V14.01,2013-04-15 06:39:00,
2013-04-15 01:40:00,70.9,69.1,29.69,SSE,159,11.0,13.0,94,0.00,,---,0.00,VWS V14.01,2013-04-15 06:40:00,
2013-04-15 01:41:00,70.9,69.1,29.69,SSE,165,11.0,14.0,94,0.00,,---,0.00,VWS V14.01,2013-04-15 06:41:00,
2013-04-15 01:42:00,70.9,69.1,29.69,SSE,162,6.0,12.0,94,0.00,,---,0.00,VWS V14.01,2013-04-15 06:42:00,
2013-04-15 01:43:00,70.9,69.1,29.69,SSE,163,11.0,13.0,94,0.00,,---,0.00,VWS V14.01,2013-04-15 06:43:00,
2013-04-15 01:44:00,70.9,69.1,29.68,South,173,10.0,14.0,94,0.00,,---,0.00,VWS V14.01,2013-04-15 06:44:00,
2013-04-15 01:45:00,70.9,69.1,29.68,SSE,161,8.0,14.0,94,0.00,,---,0.00,VWS V14.01,2013-04-15 06:45:00,
2013-04-15 01:46:00,71.0,69.2,29.69,SSE,163,15.0,15.0,94,0.00,,---,0.00,VWS V14.01,2013-04-15 06:46:00,
2013-04-15 01:47:00,71.0,69.2,29.69,SE,136,4.0,16.0,94,0.00,,---,0.00,VWS V14.01,2013-04-15 06:47:00,
2013-04-15 01:48:00,71.0,69.2,29.69,SSE,160,13.0,13.0,94,0.00,,---,0.00,VWS V14.01,2013-04-15 06:48:00,
2013-04-15 01:49:00,71.0,69.2,29.69,SSE,162,7.0,15.0,94,0.00,,---,0.00,VWS V14.01,2013-04-15 06:49:00,
2013-04-15 01:50:00,71.0,69.2,29.69,SSE,155,13.0,15.0,94,0.00,,---,0.00,VWS V14.01,2013-04-15 06:50:00,
2013-04-15 01:51:00,71.0,69.2,29.69,South,175,8.0,13.0,94,0.00,,---,0.00,VWS V14.01,2013-04-15 06:51:00,
2013-04-15 01:52:00,71.0,69.2,29.69,South,172,12.0,13.0,94,0.00,,---,0.00,VWS V14.01,2013-04-15 06:52:00,
2013-04-15 01:53:00,71.0,69.2,29.69,SSE,165,16.0,22.0,94,0.00,,---,0.00,VWS V14.01,2013-04-15 06:53:00,
2013-04-15 01:54:00,71.0,69.2,29.69,South,169,13.0,16.0,94,0.00,,---,0.00,VWS V14.01,2013-04-15 06:54:00,
2013-04-15 01:55:00,71.0,69.2,29.69,South,172,12.0,16.0,94,0.00,,---,0.00,VWS V14.01,2013-04-15 06:55:00,
2013-04-15 01:57:00,71.1,69.3,29.69,SSE,156,13.0,13.0,94,0.00,,---,0.00,VWS V14.01,2013-04-15 06:57:00,
2013-04-15 01:58:00,71.1,69.3,29.69,SSE,161,11.0,14.0,94,0.00,,---,0.00,VWS V14.01,2013-04-15 06:58:00,
2013-04-15 01:59:00,71.1,69.3,29.69,SSE,165,7.0,16.0,94,0.00,,---,0.00,VWS V14.01,2013-04-15 06:59:00,
2013-04-15 02:00:00,71.1,69.3,29.69,SSE,167,6.0,16.0,94,0.00,,---,0.00,VWS V14.01,2013-04-15 07:00:00,
2013-04-15 02:01:00,71.1,69.3,29.69,South,169,8.0,11.0,94,0.00,,---,0.00,VWS V14.01,2013-04-15 07:01:00,
2013-04-15 02:02:00,71.1,69.3,29.69,SSE,157,14.0,14.0,94,0.00,,---,0.00,VWS V14.01,2013-04-15 07:02:00,
2013-04-15 02:03:00,71.1,69.3,29.69,SSE,161,10.0,14.0,94,0.00,,---,0.00,VWS V14.01,2013-04-15 07:03:00,
2013-04-15 02:04:00,71.1,69.3,29.69,SSE,164,10.0,14.0,94,0.00,,---,0.00,VWS V14.01,2013-04-15 07:04:00,
2013-04-15 02:05:00,71.1,69.3,29.69,SE,142,14.0,14.0,94,0.00,,---,0.00,VWS V14.01,2013-04-15 07:05:00,
2013-04-15 02:06:00,71.1,69.3,29.69,SSE,164,12.0,17.0,94,0.00,,---,0.00,VWS V14.01,2013-04-15 07:06:00,
2013-04-15 02:07:00,71.1,69.3,29.69,SSE,160,10.0,14.0,94,0.00,,---,0.00,VWS V14.01,2013-04-15 07:07:00,
2013-04-15 02:08:00,71.1,69.3,29.69,South,172,16.0,17.0,94,0.00,,---,0.00,VWS V14.01,2013-04-15 07:08:00,
2013-04-15 02:09:00,71.1,69.3,29.69,SSE,158,17.0,17.0,94,0.00,,---,0.00,VWS V14.01,2013-04-15 07:09:00,
2013-04-15 02:10:00,71.1,69.3,29.69,SSE,165,9.0,17.0,94,0.00,,---,0.00,VWS V14.01,2013-04-15 07:10:00,
2013-04-15 02:11:00,71.1,69.3,29.69,SSE,164,16.0,19.0,94,0.00,,---,0.00,VWS V14.01,2013-04-15 07:11:00,
2013-04-15 02:12:00,71.2,69.4,29.69,SSE,163,12.0,17.0,94,0.00,,---,0.00,VWS V14.01,2013-04-15 07:12:00,
2013-04-15 02:13:00,71.1,69.3,29.69,South,172,10.0,19.0,94,0.00,,---,0.00,VWS V14.01,2013-04-15 07:13:00,
2013-04-15 02:14:00,71.2,69.4,29.69,SSE,156,14.0,21.0,94,0.00,,---,0.00,VWS V14.01,2013-04-15 07:14:00,
2013-04-15 02:15:00,71.1,69.3,29.69,SSE,159,14.0,15.0,94,0.00,,---,0.00,VWS V14.01,2013-04-15 07:15:00,
2013-04-15 02:16:00,71.1,69.3,29.69,SSE,168,13.0,17.0,94,0.00,,---,0.00,VWS V14.01,2013-04-15 07:16:00,
2013-04-15 02:17:00,71.2,69.4,29.69,SSE,160,17.0,17.0,94,0.00,,---,0.00,VWS V14.01,2013-04-15 07:17:00,
2013-04-15 02:18:00,71.1,69.3,29.69,South,173,14.0,17.0,94,0.00,,---,0.00,VWS V14.01,2013-04-15 07:18:00,
2013-04-15 02:19:00,71.2,69.4,29.69,South,173,10.0,14.0,94,0.00,,---,0.00,VWS V14.01,2013-04-15 07:19:00,
2013-04-15 02:20:00,71.1,69.3,29.69,South,176,13.0,15.0,94,0.00,,---,0.00,VWS V14.01,2013-04-15 07:20:00,
2013-04-15 02:21:00,71.2,69.4,29.69,South,187,10.0,16.0,94,0.00,,---,0.00,VWS V14.01,2013-04-15 07:21:00,
2013-04-15 02:22:00,71.2,69.4,29.69,South,186,10.0,16.0,94,0.00,,---,0.00,VWS V14.01,2013-04-15 07:22:00,
2013-04-15 02:23:00,71.2,69.4,29.68,South,171,20.0,20.0,94,0.00,,---,0.00,VWS V14.01,2013-04-15 07:23:00,
2013-04-15 02:24:00,71.2,69.4,29.68,South,187,18.0,22.0,94,0.00,,---,0.00,VWS V14.01,2013-04-15 07:24:00,
2013-04-15 02:25:00,71.1,69.3,29.68,South,171,15.0,18.0,94,0.00,,---,0.00,VWS V14.01,2013-04-15 07:25:00,
2013-04-15 02:26:00,71.1,69.3,29.68,SSE,165,14.0,19.0,94,0.00,,---,0.00,VWS V14.01,2013-04-15 07:26:00,
2013-04-15 02:27:00,71.1,69.3,29.68,SSE,163,13.0,18.0,94,0.00,,---,0.00,VWS V14.01,2013-04-15 07:27:00,
2013-04-15 02:28:00,71.1,69.3,29.68,South,180,16.0,17.0,94,0.00,,---,0.00,VWS V14.01,2013-04-15 07:28:00,
2013-04-15 02:29:00,71.1,69.3,29.68,SSE,164,17.0,17.0,94,0.00,,---,0.00,VWS V14.01,2013-04-15 07:29:00,
2013-04-15 02:30:00,71.1,69.3,29.68,SSE,163,12.0,21.0,94,0.00,,---,0.00,VWS V14.01,2013-04-15 07:30:00,
2013-04-15 02:31:00,71.1,69.3,29.68,SSE,164,14.0,16.0,94,0.00,,---,0.00,VWS V14.01,2013-04-15 07:31:00,
2013-04-15 02:32:00,71.1,69.3,29.68,SE,145,13.0,15.0,94,0.00,,---,0.00,VWS V14.01,2013-04-15 07:32:00,
2013-04-15 02:33:00,71.1,69.3,29.68,SSE,167,11.0,20.0,94,0.00,,---,0.00,VWS V14.01,2013-04-15 07:33:00,
2013-04-15 02:34:00,71.1,69.3,29.68,SSE,165,11.0,15.0,94,0.00,,---,0.00,VWS V14.01,2013-04-15 07:34:00,
2013-04-15 02:35:00,71.1,69.3,29.68,SSE,155,13.0,17.0,94,0.00,,---,0.00,VWS V14.01,2013-04-15 07:35:00,
2013-04-15 02:36:00,71.1,69.3,29.68,SSE,168,9.0,14.0,94,0.00,,---,0.00,VWS V14.01,2013-04-15 07:36:00,
2013-04-15 02:37:00,71.1,69.3,29.68,South,190,9.0,10.0,94,0.00,,---,0.00,VWS V14.01,2013-04-15 07:37:00,
2013-04-15 02:38:00,71.1,69.3,29.68,SSE,152,16.0,17.0,94,0.00,,---,0.00,VWS V14.01,2013-04-15 07:38:00,
2013-04-15 02:39:00,71.1,69.3,29.68,SSE,168,9.0,16.0,94,0.00,,---,0.00,VWS V14.01,2013-04-15 07:39:00,
2013-04-15 02:40:00,71.1,69.3,29.68,SSE,159,15.0,15.0,94,0.00,,---,0.00,VWS V14.01,2013-04-15 07:40:00,
2013-04-15 02:41:00,71.1,69.3,29.68,SSE,156,10.0,13.0,94,0.00,,---,0.00,VWS V14.01,2013-04-15 07:41:00,
2013-04-15 02:42:00,71.1,69.3,29.68,South,181,8.0,16.0,94,0.00,,---,0.00,VWS V14.01,2013-04-15 07:42:00,
2013-04-15 02:43:00,71.1,69.3,29.69,South,171,7.0,12.0,94,0.00,,---,0.00,VWS V14.01,2013-04-15 07:43:00,
2013-04-15 02:44:00,71.1,69.3,29.68,South,180,13.0,14.0,94,0.00,,---,0.00,VWS V14.01,2013-04-15 07:44:00,
2013-04-15 02:45:00,71.1,69.3,29.68,South,186,13.0,13.0,94,0.00,,---,0.00,VWS V14.01,2013-04-15 07:45:00,
2013-04-15 02:46:00,71.1,69.3,29.69,SE,146,9.0,13.0,94,0.00,,---,0.00,VWS V14.01,2013-04-15 07:46:00,
2013-04-15 02:47:00,71.1,69.3,29.68,SSE,165,12.0,18.0,94,0.00,,---,0.00,VWS V14.01,2013-04-15 07:47:00,
2013-04-15 02:48:00,71.1,69.3,29.68,SSE,156,12.0,18.0,94,0.00,,---,0.00,VWS V14.01,2013-04-15 07:48:00,
2013-04-15 02:49:00,71.1,69.3,29.68,South,177,18.0,18.0,94,0.00,,---,0.00,VWS V14.01,2013-04-15 07:49:00,
2013-04-15 02:50:00,71.1,69.3,29.68,SSE,168,17.0,18.0,94,0.00,,---,0.00,VWS V14.01,2013-04-15 07:50:00,
2013-04-15 02:51:00,71.0,69.2,29.68,South,181,11.0,15.0,94,0.00,,---,0.00,VWS V14.01,2013-04-15 07:51:00,
2013-04-15 02:53:00,71.0,69.2,29.68,South,186,20.0,20.0,94,0.00,,---,0.00,VWS V14.01,2013-04-15 07:53:00,
2013-04-15 02:54:00,71.0,69.2,29.68,SSE,168,14.0,20.0,94,0.00,,---,0.00,VWS V14.01,2013-04-15 07:54:00,
2013-04-15 02:55:00,71.0,69.2,29.68,South,173,16.0,16.0,94,0.00,,---,0.00,VWS V14.01,2013-04-15 07:55:00,
2013-04-15 02:56:00,71.0,69.2,29.68,South,174,11.0,14.0,94,0.00,,---,0.00,VWS V14.01,2013-04-15 07:56:00,
2013-04-15 02:57:00,71.0,69.2,29.68,SSE,162,12.0,16.0,94,0.00,,---,0.00,VWS V14.01,2013-04-15 07:57:00,
2013-04-15 02:58:00,71.0,69.2,29.68,South,175,16.0,18.0,94,0.00,,---,0.00,VWS V14.01,2013-04-15 07:58:00,
2013-04-15 02:59:00,71.0,69.2,29.68,South,182,10.0,16.0,94,0.00,,---,0.00,VWS V14.01,2013-04-15 07:59:00,
2013-04-15 03:00:00,71.0,69.2,29.68,SSE,167,13.0,13.0,94,0.00,,---,0.00,VWS V14.01,2013-04-15 08:00:00,
2013-04-15 03:01:00,71.0,69.2,29.68,SSE,157,9.0,18.0,94,0.00,,---,0.00,VWS V14.01,2013-04-15 08:01:00,
2013-04-15 03:02:00,71.0,69.2,29.68,SSE,150,12.0,13.0,94,0.00,,---,0.00,VWS V14.01,2013-04-15 08:02:00,
2013-04-15 03:03:00,71.0,69.2,29.68,South,180,12.0,17.0,94,0.00,,---,0.00,VWS V14.01,2013-04-15 08:03:00,
2013-04-15 03:04:00,71.0,69.2,29.68,SSE,160,13.0,17.0,94,0.00,,---,0.00,VWS V14.01,2013-04-15 08:04:00,
2013-04-15 03:05:00,71.0,69.2,29.68,South,175,13.0,16.0,94,0.00,,---,0.00,VWS V14.01,2013-04-15 08:05:00,
2013-04-15 03:06:00,71.0,69.2,29.68,South,186,15.0,22.0,94,0.00,,---,0.00,VWS V14.01,2013-04-15 08:06:00,
2013-04-15 03:07:00,71.0,69.2,29.68,South,169,12.0,16.0,94,0.00,,---,0.00,VWS V14.01,2013-04-15 08:07:00,
2013-04-15 03:08:00,71.0,69.2,29.68,SSE,165,14.0,20.0,94,0.00,,---,0.00,VWS V14.01,2013-04-15 08:08:00,
2013-04-15 03:09:00,71.0,68.9,29.68,South,169,19.0,21.0,93,0.00,,---,0.00,VWS V14.01,2013-04-15 08:09:00,
2013-04-15 03:10:00,71.0,68.9,29.68,SSE,168,13.0,19.0,93,0.00,,---,0.00,VWS V14.01,2013-04-15 08:10:00,
2013-04-15 03:11:00,71.0,68.9,29.68,SW,236,12.0,18.0,93,0.00,,---,0.00,VWS V14.01,2013-04-15 08:11:00,
2013-04-15 03:12:00,71.0,68.9,29.68,SSE,153,10.0,14.0,93,0.00,,---,0.00,VWS V14.01,2013-04-15 08:12:00,
2013-04-15 03:13:00,71.0,68.9,29.68,South,175,12.0,16.0,93,0.00,,---,0.00,VWS V14.01,2013-04-15 08:13:00,
2013-04-15 03:14:00,71.0,68.9,29.68,South,169,10.0,18.0,93,0.00,,---,0.00,VWS V14.01,2013-04-15 08:14:00,
2013-04-15 03:15:00,71.0,68.9,29.68,SSE,163,11.0,13.0,93,0.00,,---,0.00,VWS V14.01,2013-04-15 08:15:00,
2013-04-15 03:16:00,71.0,68.9,29.68,SSE,155,12.0,17.0,93,0.00,,---,0.00,VWS V14.01,2013-04-15 08:16:00,
2013-04-15 03:17:00,71.0,68.9,29.68,SSE,168,12.0,13.0,93,0.00,,---,0.00,VWS V14.01,2013-04-15 08:17:00,
2013-04-15 03:18:00,71.0,68.9,29.68,SSE,163,5.0,17.0,93,0.00,,---,0.00,VWS V14.01,2013-04-15 08:18:00,
2013-04-15 03:19:00,71.0,68.9,29.67,SSE,167,14.0,18.0,93,0.00,,---,0.00,VWS V14.01,2013-04-15 08:19:00,
2013-04-15 03:20:00,71.0,68.9,29.67,SE,140,14.0,16.0,93,0.00,,---,0.00,VWS V14.01,2013-04-15 08:20:00,
2013-04-15 03:21:00,71.0,68.9,29.67,South,178,17.0,19.0,93,0.00,,---,0.00,VWS V14.01,2013-04-15 08:21:00,
2013-04-15 03:22:00,71.0,68.9,29.67,South,179,9.0,22.0,93,0.00,,---,0.00,VWS V14.01,2013-04-15 08:22:00,
2013-04-15 03:23:00,71.0,68.9,29.67,SSE,166,11.0,19.0,93,0.00,,---,0.00,VWS V14.01,2013-04-15 08:23:00,
2013-04-15 03:24:00,71.0,68.9,29.68,South,169,15.0,16.0,93,0.00,,---,0.00,VWS V14.01,2013-04-15 08:24:00,
2013-04-15 03:25:00,71.0,68.9,29.67,South,171,17.0,17.0,93,0.00,,---,0.00,VWS V14.01,2013-04-15 08:25:00,
2013-04-15 03:26:00,71.0,68.9,29.67,SSE,155,6.0,22.0,93,0.00,,---,0.00,VWS V14.01,2013-04-15 08:26:00,
2013-04-15 03:27:00,71.0,68.9,29.67,South,169,20.0,20.0,93,0.00,,---,0.00,VWS V14.01,2013-04-15 08:27:00,
2013-04-15 03:28:00,71.0,68.9,29.67,South,182,17.0,20.0,93,0.00,,---,0.00,VWS V14.01,2013-04-15 08:28:00,
2013-04-15 03:29:00,71.0,68.9,29.67,SSE,158,15.0,18.0,93,0.00,,---,0.00,VWS V14.01,2013-04-15 08:29:00,
2013-04-15 03:30:00,71.0,68.9,29.68,South,171,17.0,24.0,93,0.00,,---,0.00,VWS V14.01,2013-04-15 08:30:00,
2013-04-15 03:31:00,70.9,68.8,29.68,South,173,10.0,20.0,93,0.00,,---,0.00,VWS V14.01,2013-04-15 08:31:00,
2013-04-15 03:32:00,70.9,68.8,29.68,SSE,161,11.0,11.0,93,0.00,,---,0.00,VWS V14.01,2013-04-15 08:32:00,
2013-04-15 03:33:00,70.9,68.8,29.68,South,172,9.0,17.0,93,0.00,,---,0.00,VWS V14.01,2013-04-15 08:33:00,
2013-04-15 03:34:00,70.9,68.8,29.68,South,177,17.0,20.0,93,0.00,,---,0.00,VWS V14.01,2013-04-15 08:34:00,
2013-04-15 03:35:00,70.9,68.8,29.68,South,189,16.0,20.0,93,0.00,,---,0.00,VWS V14.01,2013-04-15 08:35:00,
2013-04-15 03:36:00,70.9,68.8,29.68,SSE,168,14.0,20.0,93,0.00,,---,0.00,VWS V14.01,2013-04-15 08:36:00,
2013-04-15 03:37:00,70.9,68.8,29.68,South,178,14.0,15.0,93,0.00,,---,0.00,VWS V14.01,2013-04-15 08:37:00,
2013-04-15 03:38:00,70.8,68.7,29.68,SSE,164,14.0,15.0,93,0.00,,---,0.00,VWS V14.01,2013-04-15 08:38:00,
2013-04-15 03:39:00,70.8,68.7,29.68,South,169,15.0,19.0,93,0.00,,---,0.00,VWS V14.01,2013-04-15 08:39:00,
2013-04-15 03:40:00,70.8,68.7,29.68,South,177,10.0,19.0,93,0.00,,---,0.00,VWS V14.01,2013-04-15 08:40:00,
2013-04-15 03:41:00,70.8,68.7,29.68,South,176,21.0,21.0,93,0.00,,---,0.00,VWS V14.01,2013-04-15 08:41:00,
2013-04-15 03:42:00,70.8,68.7,29.68,SSE,150,16.0,21.0,93,0.00,,---,0.00,VWS V14.01,2013-04-15 08:42:00,
2013-04-15 03:43:00,70.7,68.6,29.68,South,169,14.0,23.0,93,0.00,,---,0.00,VWS V14.01,2013-04-15 08:43:00,
2013-04-15 03:44:00,70.7,68.6,29.68,SSE,165,23.0,23.0,93,0.00,,---,0.00,VWS V14.01,2013-04-15 08:44:00,
2013-04-15 03:45:00,70.7,68.6,29.68,South,169,21.0,22.0,93,0.00,,---,0.00,VWS V14.01,2013-04-15 08:45:00,
2013-04-15 03:46:00,70.6,68.5,29.68,SSE,167,23.0,24.0,93,0.00,,---,0.00,VWS V14.01,2013-04-15 08:46:00,
2013-04-15 03:47:00,70.6,68.2,29.68,SSE,155,19.0,23.0,92,0.00,,---,0.00,VWS V14.01,2013-04-15 08:47:00,
2013-04-15 03:48:00,70.6,68.2,29.68,South,172,21.0,26.0,92,0.00,,---,0.00,VWS V14.01,2013-04-15 08:48:00,
2013-04-15 03:49:00,70.6,68.2,29.68,SSE,164,14.0,22.0,92,0.00,,---,0.00,VWS V14.01,2013-04-15 08:49:00,
2013-04-15 03:50:00,70.6,68.2,29.68,SSE,168,17.0,22.0,92,0.00,,---,0.00,VWS V14.01,2013-04-15 08:50:00,
2013-04-15 03:51:00,70.6,68.5,29.68,SSE,166,15.0,22.0,93,0.00,,---,0.00,VWS V14.01,2013-04-15 08:51:00,
2013-04-15 03:52:00,70.6,68.5,29.68,South,169,13.0,17.0,93,0.00,,---,0.00,VWS V14.01,2013-04-15 08:52:00,
2013-04-15 03:53:00,70.6,68.5,29.68,South,171,15.0,15.0,93,0.00,,---,0.00,VWS V14.01,2013-04-15 08:53:00,
2013-04-15 03:54:00,70.6,68.5,29.68,SSE,156,14.0,20.0,93,0.00,,---,0.00,VWS V14.01,2013-04-15 08:54:00,
2013-04-15 03:55:00,70.6,68.5,29.68,SSE,165,16.0,20.0,93,0.00,,---,0.00,VWS V14.01,2013-04-15 08:55:00,
2013-04-15 03:57:00,70.6,68.5,29.68,South,172,16.0,20.0,93,0.00,,---,0.00,VWS V14.01,2013-04-15 08:57:00,
2013-04-15 03:58:00,70.6,68.5,29.68,South,169,12.0,18.0,93,0.00,,---,0.00,VWS V14.01,2013-04-15 08:58:00,
2013-04-15 03:59:00,70.6,68.5,29.68,SSE,166,18.0,18.0,93,0.00,,---,0.00,VWS V14.01,2013-04-15 08:59:00,
2013-04-15 04:00:00,70.6,68.5,29.68,SSE,163,12.0,15.0,93,0.00,,---,0.00,VWS V14.01,2013-04-15 09:00:00,
2013-04-15 04:01:00,70.6,68.5,29.68,South,178,13.0,19.0,93,0.00,,---,0.00,VWS V14.01,2013-04-15 09:01:00,
2013-04-15 04:02:00,70.7,68.6,29.68,South,169,17.0,19.0,93,0.00,,---,0.00,VWS V14.01,2013-04-15 09:02:00,
2013-04-15 04:03:00,70.6,68.5,29.68,South,177,10.0,18.0,93,0.00,,---,0.00,VWS V14.01,2013-04-15 09:03:00,
2013-04-15 04:04:00,70.6,68.5,29.68,South,178,13.0,18.0,93,0.00,,---,0.00,VWS V14.01,2013-04-15 09:04:00,
2013-04-15 04:05:00,70.7,68.6,29.68,SSE,163,17.0,18.0,93,0.00,,---,0.00,VWS V14.01,2013-04-15 09:05:00,
2013-04-15 04:06:00,70.6,68.2,29.68,South,178,8.0,16.0,92,0.00,,---,0.00,VWS V14.01,2013-04-15 09:06:00,
2013-04-15 04:07:00,70.6,68.2,29.68,South,186,13.0,13.0,92,0.00,,---,0.00,VWS V14.01,2013-04-15 09:07:00,
2013-04-15 04:08:00,70.6,68.2,29.68,SE,140,11.0,15.0,92,0.00,,---,0.00,VWS V14.01,2013-04-15 09:08:00,
2013-04-15 04:10:00,70.6,68.2,29.68,South,171,13.0,18.0,92,0.00,,---,0.00,VWS V14.01,2013-04-15 09:10:00,
2013-04-15 04:11:00,70.6,68.5,29.68,SE,145,7.0,13.0,93,0.00,,---,0.00,VWS V14.01,2013-04-15 09:11:00,
2013-04-15 04:12:00,70.6,68.2,29.68,SSE,153,15.0,15.0,92,0.00,,---,0.00,VWS V14.01,2013-04-15 09:12:00,
2013-04-15 04:13:00,70.6,68.2,29.68,South,169,17.0,22.0,92,0.00,,---,0.00,VWS V14.01,2013-04-15 09:13:00,
2013-04-15 04:14:00,70.6,68.2,29.68,South,186,22.0,22.0,92,0.00,,---,0.00,VWS V14.01,2013-04-15 09:14:00,
2013-04-15 04:15:00,70.6,68.2,29.68,South,181,18.0,20.0,92,0.00,,---,0.00,VWS V14.01,2013-04-15 09:15:00,
2013-04-15 04:16:00,70.6,68.2,29.68,SSE,161,12.0,16.0,92,0.00,,---,0.00,VWS V14.01,2013-04-15 09:16:00,
2013-04-15 04:17:00,70.6,68.2,29.68,South,180,11.0,18.0,92,0.00,,---,0.00,VWS V14.01,2013-04-15 09:17:00,
2013-04-15 04:18:00,70.6,68.2,29.68,South,172,15.0,16.0,92,0.00,,---,0.00,VWS V14.01,2013-04-15 09:18:00,
2013-04-15 04:19:00,70.6,68.2,29.68,SSE,161,13.0,16.0,92,0.00,,---,0.00,VWS V14.01,2013-04-15 09:19:00,
2013-04-15 04:20:00,70.6,68.2,29.68,South,169,11.0,16.0,92,0.00,,---,0.00,VWS V14.01,2013-04-15 09:20:00,
2013-04-15 04:21:00,70.6,68.2,29.67,SSE,149,15.0,29.0,92,0.00,,---,0.00,VWS V14.01,2013-04-15 09:21:00,
2013-04-15 04:22:00,70.6,68.2,29.68,South,171,16.0,22.0,92,0.00,,---,0.00,VWS V14.01,2013-04-15 09:22:00,
2013-04-15 04:23:00,70.5,68.1,29.68,South,171,15.0,23.0,92,0.00,,---,0.00,VWS V14.01,2013-04-15 09:23:00,
2013-04-15 04:24:00,70.6,68.2,29.68,SSE,165,15.0,20.0,92,0.00,,---,0.00,VWS V14.01,2013-04-15 09:24:00,
2013-04-15 04:25:00,70.5,68.1,29.68,SSE,153,9.0,20.0,92,0.00,,---,0.00,VWS V14.01,2013-04-15 09:25:00,
2013-04-15 04:26:00,70.6,68.2,29.68,South,175,21.0,24.0,92,0.00,,---,0.00,VWS V14.01,2013-04-15 09:26:00,
2013-04-15 04:27:00,70.6,68.2,29.68,SSE,167,15.0,26.0,92,0.00,,---,0.00,VWS V14.01,2013-04-15 09:27:00,
2013-04-15 04:28:00,70.5,68.1,29.68,South,172,16.0,21.0,92,0.00,,---,0.00,VWS V14.01,2013-04-15 09:28:00,
2013-04-15 04:29:00,70.5,68.1,29.68,SE,142,9.0,25.0,92,0.00,,---,0.00,VWS V14.01,2013-04-15 09:29:00,
2013-04-15 04:30:00,70.6,68.2,29.68,South,176,17.0,25.0,92,0.00,,---,0.00,VWS V14.01,2013-04-15 09:30:00,
2013-04-15 04:31:00,70.5,68.1,29.68,SSE,165,16.0,20.0,92,0.00,,---,0.00,VWS V14.01,2013-04-15 09:31:00,
2013-04-15 04:32:00,70.5,68.1,29.68,SE,144,22.0,22.0,92,0.00,,---,0.00,VWS V14.01,2013-04-15 09:32:00,
2013-04-15 04:33:00,70.6,68.2,29.68,SSW,211,15.0,22.0,92,0.00,,---,0.00,VWS V14.01,2013-04-15 09:33:00,
2013-04-15 04:34:00,70.6,68.2,29.68,SSE,167,11.0,22.0,92,0.00,,---,0.00,VWS V14.01,2013-04-15 09:34:00,
2013-04-15 04:35:00,70.6,68.2,29.68,SSE,163,14.0,22.0,92,0.00,,---,0.00,VWS V14.01,2013-04-15 09:35:00,
2013-04-15 04:36:00,70.6,68.2,29.68,SSE,168,18.0,22.0,92,0.00,,---,0.00,VWS V14.01,2013-04-15 09:36:00,
2013-04-15 04:37:00,70.6,68.2,29.68,SSE,154,15.0,18.0,92,0.00,,---,0.00,VWS V14.01,2013-04-15 09:37:00,
2013-04-15 04:38:00,70.6,68.2,29.68,South,183,16.0,21.0,92,0.00,,---,0.00,VWS V14.01,2013-04-15 09:38:00,
2013-04-15 04:39:00,70.7,68.3,29.68,SSE,164,17.0,19.0,92,0.00,,---,0.00,VWS V14.01,2013-04-15 09:39:00,
2013-04-15 04:40:00,70.6,68.2,29.68,SSE,166,14.0,18.0,92,0.00,,---,0.00,VWS V14.01,2013-04-15 09:40:00,
2013-04-15 04:41:00,70.7,68.3,29.68,South,177,16.0,16.0,92,0.00,,---,0.00,VWS V14.01,2013-04-15 09:41:00,
2013-04-15 04:42:00,70.7,68.3,29.68,South,180,11.0,16.0,92,0.00,,---,0.00,VWS V14.01,2013-04-15 09:42:00,
2013-04-15 04:43:00,70.8,68.4,29.68,SE,146,11.0,12.0,92,0.00,,---,0.00,VWS V14.01,2013-04-15 09:43:00,
2013-04-15 04:44:00,70.8,68.4,29.68,SE,142,15.0,15.0,92,0.00,,---,0.00,VWS V14.01,2013-04-15 09:44:00,
2013-04-15 04:45:00,70.8,68.4,29.68,South,182,13.0,15.0,92,0.00,,---,0.00,VWS V14.01,2013-04-15 09:45:00,
2013-04-15 04:46:00,70.9,68.5,29.68,SSE,162,13.0,18.0,92,0.00,,---,0.00,VWS V14.01,2013-04-15 09:46:00,
2013-04-15 04:47:00,70.9,68.5,29.68,SSE,167,9.0,16.0,92,0.00,,---,0.00,VWS V14.01,2013-04-15 09:47:00,
2013-04-15 04:48:00,70.9,68.2,29.68,SSE,156,17.0,18.0,91,0.00,,---,0.00,VWS V14.01,2013-04-15 09:48:00,
2013-04-15 04:49:00,70.9,68.2,29.68,SSE,168,12.0,19.0,91,0.00,,---,0.00,VWS V14.01,2013-04-15 09:49:00,
2013-04-15 04:50:00,70.9,68.2,29.68,South,180,13.0,19.0,91,0.00,,---,0.00,VWS V14.01,2013-04-15 09:50:00,
2013-04-15 04:51:00,71.0,68.2,29.68,SE,130,16.0,17.0,91,0.00,,---,0.00,VWS V14.01,2013-04-15 09:51:00,
2013-04-15 04:52:00,71.0,68.2,29.68,SE,143,11.0,18.0,91,0.00,,---,0.00,VWS V14.01,2013-04-15 09:52:00,
2013-04-15 04:53:00,71.0,68.2,29.68,SE,144,6.0,12.0,91,0.00,,---,0.00,VWS V14.01,2013-04-15 09:53:00,
2013-04-15 04:54:00,71.0,68.2,29.68,South,173,7.0,12.0,91,0.00,,---,0.00,VWS V14.01,2013-04-15 09:54:00,
2013-04-15 04:55:00,71.0,68.2,29.68,SSE,163,11.0,12.0,91,0.00,,---,0.00,VWS V14.01,2013-04-15 09:55:00,
2013-04-15 04:56:00,71.0,68.2,29.68,SE,142,5.0,12.0,91,0.00,,---,0.00,VWS V14.01,2013-04-15 09:56:00,
2013-04-15 04:57:00,71.0,68.2,29.68,SSE,161,11.0,13.0,91,0.00,,---,0.00,VWS V14.01,2013-04-15 09:57:00,
2013-04-15 04:58:00,71.0,68.2,29.68,SSE,167,9.0,13.0,91,0.00,,---,0.00,VWS V14.01,2013-04-15 09:58:00,
2013-04-15 04:59:00,71.0,68.2,29.68,SSE,152,6.0,13.0,91,0.00,,---,0.00,VWS V14.01,2013-04-15 09:59:00,
2013-04-15 05:00:00,71.0,68.2,29.68,SE,146,13.0,13.0,91,0.00,,---,0.00,VWS V14.01,2013-04-15 10:00:00,
2013-04-15 05:01:00,71.0,68.2,29.69,South,171,8.0,12.0,91,0.00,,---,0.00,VWS V14.01,2013-04-15 10:01:00,
2013-04-15 05:02:00,71.0,68.2,29.69,SSE,157,4.0,11.0,91,0.00,,---,0.00,VWS V14.01,2013-04-15 10:02:00,
2013-04-15 05:03:00,71.0,68.2,29.69,SSE,159,5.0,13.0,91,0.00,,---,0.00,VWS V14.01,2013-04-15 10:03:00,
2013-04-15 05:04:00,71.0,68.2,29.69,SSE,168,9.0,12.0,91,0.00,,---,0.00,VWS V14.01,2013-04-15 10:04:00,
2013-04-15 05:05:00,71.0,68.2,29.69,South,179,8.0,11.0,91,0.00,,---,0.00,VWS V14.01,2013-04-15 10:05:00,
2013-04-15 05:06:00,71.0,68.2,29.69,South,180,4.0,11.0,91,0.00,,---,0.00,VWS V14.01,2013-04-15 10:06:00,
2013-04-15 05:07:00,71.0,68.2,29.69,South,177,12.0,12.0,91,0.00,,---,0.00,VWS V14.01,2013-04-15 10:07:00,
2013-04-15 05:08:00,71.0,68.2,29.69,SSE,159,12.0,12.0,91,0.00,,---,0.00,VWS V14.01,2013-04-15 10:08:00,
2013-04-15 05:09:00,71.0,68.2,29.69,SSE,158,9.0,14.0,91,0.00,,---,0.00,VWS V14.01,2013-04-15 10:09:00,
2013-04-15 05:10:00,71.0,68.2,29.69,SSE,161,14.0,14.0,91,0.00,,---,0.00,VWS V14.01,2013-04-15 10:10:00,
2013-04-15 05:11:00,71.0,68.2,29.69,SSE,163,10.0,12.0,91,0.00,,---,0.00,VWS V14.01,2013-04-15 10:11:00,
2013-04-15 05:12:00,70.9,68.2,29.69,SSE,155,5.0,16.0,91,0.00,,---,0.00,VWS V14.01,2013-04-15 10:12:00,
2013-04-15 05:13:00,70.9,68.2,29.69,SSE,149,9.0,10.0,91,0.00,,---,0.00,VWS V14.01,2013-04-15 10:13:00,
2013-04-15 05:14:00,70.9,68.2,29.69,SE,140,11.0,11.0,91,0.00,,---,0.00,VWS V14.01,2013-04-15 10:14:00,
2013-04-15 05:15:00,70.9,68.2,29.69,SSE,154,4.0,10.0,91,0.00,,---,0.00,VWS V14.01,2013-04-15 10:15:00,
2013-04-15 05:16:00,70.9,68.2,29.69,SSE,157,6.0,11.0,91,0.00,,---,0.00,VWS V14.01,2013-04-15 10:16:00,
2013-04-15 05:17:00,70.9,68.2,29.69,SE,133,10.0,10.0,91,0.00,,---,0.00,VWS V14.01,2013-04-15 10:17:00,
2013-04-15 05:18:00,70.9,68.2,29.69,SSE,163,5.0,11.0,91,0.00,,---,0.00,VWS V14.01,2013-04-15 10:18:00,
2013-04-15 05:19:00,70.9,68.2,29.69,SSE,164,12.0,13.0,91,0.00,,---,0.00,VWS V14.01,2013-04-15 10:19:00,
2013-04-15 05:20:00,70.9,68.2,29.69,SSE,149,6.0,9.0,91,0.00,,---,0.00,VWS V14.01,2013-04-15 10:20:00,
2013-04-15 05:21:00,70.9,68.2,29.69,South,171,9.0,13.0,91,0.00,,---,0.00,VWS V14.01,2013-04-15 10:21:00,
2013-04-15 05:22:00,70.9,68.2,29.69,SSE,157,8.0,11.0,91,0.00,,---,0.00,VWS V14.01,2013-04-15 10:22:00,
2013-04-15 05:23:00,70.9,68.2,29.69,SSE,164,6.0,8.0,91,0.00,,---,0.00,VWS V14.01,2013-04-15 10:23:00,
2013-04-15 05:24:00,70.9,68.2,29.69,SSE,160,9.0,13.0,91,0.00,,---,0.00,VWS V14.01,2013-04-15 10:24:00,
2013-04-15 05:25:00,70.8,68.1,29.69,SE,141,9.0,13.0,91,0.00,,---,0.00,VWS V14.01,2013-04-15 10:25:00,
2013-04-15 05:26:00,70.8,68.1,29.69,SSE,159,7.0,13.0,91,0.00,,---,0.00,VWS V14.01,2013-04-15 10:26:00,
2013-04-15 05:27:00,70.8,68.1,29.69,SE,131,3.0,10.0,91,0.00,,---,0.00,VWS V14.01,2013-04-15 10:27:00,
2013-04-15 05:28:00,70.8,68.1,29.69,South,173,10.0,12.0,91,0.00,,---,0.00,VWS V14.01,2013-04-15 10:28:00,
2013-04-15 05:29:00,70.8,68.1,29.69,SSE,151,11.0,11.0,91,0.00,,---,0.00,VWS V14.01,2013-04-15 10:29:00,
2013-04-15 05:30:00,70.8,68.1,29.69,SSE,152,4.0,11.0,91,0.00,,---,0.00,VWS V14.01,2013-04-15 10:30:00,
2013-04-15 05:31:00,70.8,68.1,29.69,SSE,153,7.0,14.0,91,0.00,,---,0.00,VWS V14.01,2013-04-15 10:31:00,
2013-04-15 05:32:00,70.9,68.2,29.69,SSE,163,7.0,15.0,91,0.00,,---,0.00,VWS V14.01,2013-04-15 10:32:00,
2013-04-15 05:33:00,70.9,68.2,29.69,SSE,152,6.0,13.0,91,0.00,,---,0.00,VWS V14.01,2013-04-15 10:33:00,
2013-04-15 05:34:00,70.9,68.2,29.69,SSE,162,11.0,11.0,91,0.00,,---,0.00,VWS V14.01,2013-04-15 10:34:00,
2013-04-15 05:35:00,70.9,68.2,29.69,SSE,157,4.0,9.0,91,0.00,,---,0.00,VWS V14.01,2013-04-15 10:35:00,
2013-04-15 05:36:00,70.9,68.2,29.69,SSE,151,6.0,11.0,91,0.00,,---,0.00,VWS V14.01,2013-04-15 10:36:00,
2013-04-15 05:38:00,70.9,68.2,29.69,SSE,153,7.0,14.0,91,0.00,,---,0.00,VWS V14.01,2013-04-15 10:38:00,
2013-04-15 05:39:00,70.9,68.2,29.69,South,170,4.0,7.0,91,0.00,,---,0.00,VWS V14.01,2013-04-15 10:39:00,
2013-04-15 05:40:00,70.9,68.2,29.69,SSE,168,10.0,12.0,91,0.00,,---,0.00,VWS V14.01,2013-04-15 10:40:00,
2013-04-15 05:41:00,70.9,68.2,29.69,SSE,159,6.0,11.0,91,0.00,,---,0.00,VWS V14.01,2013-04-15 10:41:00,
2013-04-15 05:42:00,71.0,68.2,29.69,South,173,10.0,12.0,91,0.00,,---,0.00,VWS V14.01,2013-04-15 10:42:00,
2013-04-15 05:43:00,71.0,68.2,29.69,SE,141,6.0,14.0,91,0.00,,---,0.00,VWS V14.01,2013-04-15 10:43:00,
2013-04-15 05:44:00,71.0,68.2,29.69,SSE,159,11.0,12.0,91,0.00,,---,0.00,VWS V14.01,2013-04-15 10:44:00,
2013-04-15 05:45:00,71.0,68.2,29.69,SSE,156,13.0,14.0,91,0.00,,---,0.00,VWS V14.01,2013-04-15 10:45:00,
2013-04-15 05:46:00,71.0,68.2,29.69,South,172,6.0,13.0,91,0.00,,---,0.00,VWS V14.01,2013-04-15 10:46:00,
2013-04-15 05:47:00,71.0,68.2,29.69,SSE,161,15.0,15.0,91,0.00,,---,0.00,VWS V14.01,2013-04-15 10:47:00,
2013-04-15 05:48:00,71.0,68.2,29.69,South,178,3.0,15.0,91,0.00,,---,0.00,VWS V14.01,2013-04-15 10:48:00,
2013-04-15 05:49:00,71.0,68.2,29.69,South,188,15.0,15.0,91,0.00,,---,0.00,VWS V14.01,2013-04-15 10:49:00,
2013-04-15 05:51:00,71.1,68.3,29.69,SSE,152,6.0,13.0,91,0.00,,---,0.00,VWS V14.01,2013-04-15 10:51:00,
2013-04-15 05:52:00,71.1,68.3,29.69,SSE,167,10.0,11.0,91,0.00,,---,0.00,VWS V14.01,2013-04-15 10:52:00,
2013-04-15 05:53:00,71.2,68.4,29.69,SSE,168,9.0,10.0,91,0.00,,---,0.00,VWS V14.01,2013-04-15 10:53:00,
2013-04-15 05:54:00,71.2,68.4,29.69,SSE,168,6.0,14.0,91,0.00,,---,0.00,VWS V14.01,2013-04-15 10:54:00,
2013-04-15 05:55:00,71.2,68.4,29.69,SE,128,6.0,14.0,91,0.00,,---,0.00,VWS V14.01,2013-04-15 10:55:00,
2013-04-15 05:56:00,71.3,68.5,29.69,SSE,164,18.0,18.0,91,0.00,,---,0.00,VWS V14.01,2013-04-15 10:56:00,
2013-04-15 05:57:00,71.3,68.5,29.69,SSE,159,10.0,18.0,91,0.00,,---,0.00,VWS V14.01,2013-04-15 10:57:00,
2013-04-15 05:58:00,71.3,68.5,29.69,South,183,10.0,12.0,91,0.00,,---,0.00,VWS V14.01,2013-04-15 10:58:00,
2013-04-15 05:59:00,71.4,68.6,29.69,South,172,10.0,13.0,91,0.00,,---,0.00,VWS V14.01,2013-04-15 10:59:00,
2013-04-15 06:00:00,71.5,68.7,29.69,South,180,12.0,13.0,91,0.00,,---,0.00,VWS V14.01,2013-04-15 11:00:00,
2013-04-15 06:01:00,71.5,68.7,29.69,South,169,12.0,13.0,91,0.00,,---,0.00,VWS V14.01,2013-04-15 11:01:00,
2013-04-15 06:02:00,71.5,68.7,29.69,South,171,10.0,14.0,91,0.00,,---,0.00,VWS V14.01,2013-04-15 11:02:00,
2013-04-15 06:03:00,71.5,68.7,29.69,South,173,7.0,13.0,91,0.00,,---,0.00,VWS V14.01,2013-04-15 11:03:00,
2013-04-15 06:04:00,71.6,68.8,29.69,SSE,166,12.0,14.0,91,0.00,,---,0.00,VWS V14.01,2013-04-15 11:04:00,
2013-04-15 06:05:00,71.6,68.8,29.69,South,171,11.0,15.0,91,0.00,,---,0.00,VWS V14.01,2013-04-15 11:05:00,
2013-04-15 06:06:00,71.6,68.5,29.69,SSE,161,13.0,17.0,90,0.00,,---,0.00,VWS V14.01,2013-04-15 11:06:00,
2013-04-15 06:07:00,71.7,68.6,29.69,SSE,150,6.0,14.0,90,0.00,,---,0.00,VWS V14.01,2013-04-15 11:07:00,
2013-04-15 06:08:00,71.7,68.6,29.69,SSE,163,10.0,11.0,90,0.00,,---,0.00,VWS V14.01,2013-04-15 11:08:00,
2013-04-15 06:09:00,71.7,68.6,29.69,South,179,11.0,13.0,90,0.00,,---,0.00,VWS V14.01,2013-04-15 11:09:00,
2013-04-15 06:10:00,71.7,68.6,29.69,South,171,10.0,12.0,90,0.00,,---,0.00,VWS V14.01,2013-04-15 11:10:00,
2013-04-15 06:11:00,71.8,68.7,29.69,SSE,163,18.0,18.0,90,0.00,,---,0.00,VWS V14.01,2013-04-15 11:11:00,
2013-04-15 06:12:00,71.8,68.7,29.69,SSE,165,10.0,18.0,90,0.00,,---,0.00,VWS V14.01,2013-04-15 11:12:00,
2013-04-15 06:13:00,71.9,68.8,29.69,SSE,157,9.0,15.0,90,0.00,,---,0.00,VWS V14.01,2013-04-15 11:13:00,
2013-04-15 06:14:00,71.9,68.8,29.69,SSE,164,12.0,14.0,90,0.00,,---,0.00,VWS V14.01,2013-04-15 11:14:00,
2013-04-15 06:15:00,71.9,68.8,29.69,South,178,13.0,18.0,90,0.00,,---,0.00,VWS V14.01,2013-04-15 11:15:00,
2013-04-15 06:16:00,71.9,68.8,29.69,South,170,14.0,16.0,90,0.00,,---,0.00,VWS V14.01,2013-04-15 11:16:00,
2013-04-15 06:17:00,72.0,68.9,29.69,South,172,6.0,16.0,90,0.00,,---,0.00,VWS V14.01,2013-04-15 11:17:00,
2013-04-15 06:18:00,72.0,68.9,29.69,SSE,156,9.0,16.0,90,0.00,,---,0.00,VWS V14.01,2013-04-15 11:18:00,
2013-04-15 06:19:00,72.0,68.9,29.69,South,180,7.0,16.0,90,0.00,,---,0.00,VWS V14.01,2013-04-15 11:19:00,
2013-04-15 06:20:00,72.0,68.9,29.69,South,171,10.0,16.0,90,0.00,,---,0.00,VWS V14.01,2013-04-15 11:20:00,
2013-04-15 06:21:00,72.0,68.9,29.69,SSE,164,14.0,15.0,90,0.00,,---,0.00,VWS V14.01,2013-04-15 11:21:00,
2013-04-15 06:22:00,72.1,69.0,29.69,South,181,13.0,14.0,90,0.00,,---,0.00,VWS V14.01,2013-04-15 11:22:00,
2013-04-15 06:23:00,72.1,69.0,29.70,South,176,14.0,19.0,90,0.00,,---,0.00,VWS V14.01,2013-04-15 11:23:00,
2013-04-15 06:24:00,72.1,69.0,29.70,South,176,18.0,18.0,90,0.00,,---,0.00,VWS V14.01,2013-04-15 11:24:00,
2013-04-15 06:25:00,72.1,69.0,29.70,SSE,163,15.0,15.0,90,0.00,,---,0.00,VWS V14.01,2013-04-15 11:25:00,
2013-04-15 06:26:00,72.1,69.0,29.70,SSE,149,16.0,19.0,90,0.00,,---,0.00,VWS V14.01,2013-04-15 11:26:00,
2013-04-15 06:27:00,72.1,69.0,29.70,SSE,165,6.0,17.0,90,0.00,,---,0.00,VWS V14.01,2013-04-15 11:27:00,
2013-04-15 06:28:00,72.1,69.0,29.70,SSE,161,11.0,16.0,90,0.00,,---,0.00,VWS V14.01,2013-04-15 11:28:00,
2013-04-15 06:29:00,72.2,69.1,29.70,South,180,10.0,15.0,90,0.00,,---,0.00,VWS V14.01,2013-04-15 11:29:00,
2013-04-15 06:30:00,72.1,69.0,29.70,South,174,9.0,15.0,90,0.00,,---,0.00,VWS V14.01,2013-04-15 11:30:00,
2013-04-15 06:31:00,72.1,68.7,29.70,South,169,15.0,18.0,89,0.00,,---,0.00,VWS V14.01,2013-04-15 11:31:00,
2013-04-15 06:32:00,72.2,68.8,29.70,South,190,16.0,16.0,89,0.00,,---,0.00,VWS V14.01,2013-04-15 11:32:00,
2013-04-15 06:33:00,72.2,68.8,29.70,South,172,13.0,16.0,89,0.00,,---,0.00,VWS V14.01,2013-04-15 11:33:00,
2013-04-15 06:34:00,72.2,68.8,29.70,SSE,159,9.0,13.0,89,0.00,,---,0.00,VWS V14.01,2013-04-15 11:34:00,
2013-04-15 06:35:00,72.2,68.8,29.70,SSW,194,11.0,13.0,89,0.00,,---,0.00,VWS V14.01,2013-04-15 11:35:00,
2013-04-15 06:36:00,72.2,68.8,29.70,South,170,11.0,16.0,89,0.00,,---,0.00,VWS V14.01,2013-04-15 11:36:00,
2013-04-15 06:37:00,72.2,68.8,29.70,SSW,192,14.0,19.0,89,0.00,,---,0.00,VWS V14.01,2013-04-15 11:37:00,
2013-04-15 06:38:00,72.3,68.9,29.69,ESE,119,10.0,19.0,89,0.00,,---,0.00,VWS V14.01,2013-04-15 11:38:00,
2013-04-15 06:40:00,72.3,68.9,29.69,SSE,159,11.0,14.0,89,0.00,,---,0.00,VWS V14.01,2013-04-15 11:40:00,
2013-04-15 06:41:00,72.3,68.9,29.70,South,173,14.0,16.0,89,0.00,,---,0.00,VWS V14.01,2013-04-15 11:41:00,
2013-04-15 06:42:00,72.3,68.9,29.69,SSE,150,9.0,14.0,89,0.00,,---,0.00,VWS V14.01,2013-04-15 11:42:00,
2013-04-15 06:43:00,72.3,68.9,29.69,SSE,165,10.0,14.0,89,0.00,,---,0.00,VWS V14.01,2013-04-15 11:43:00,
2013-04-15 06:44:00,72.4,69.0,29.69,SSE,153,14.0,14.0,89,0.00,,---,0.00,VWS V14.01,2013-04-15 11:44:00,
2013-04-15 06:45:00,72.3,68.9,29.69,SSE,159,12.0,12.0,89,0.00,,---,0.00,VWS V14.01,2013-04-15 11:45:00,
2013-04-15 06:46:00,72.4,69.0,29.70,SSE,165,14.0,19.0,89,0.00,,---,0.00,VWS V14.01,2013-04-15 11:46:00,
2013-04-15 06:47:00,72.4,69.0,29.70,SSE,165,16.0,16.0,89,0.00,,---,0.00,VWS V14.01,2013-04-15 11:47:00,
2013-04-15 06:49:00,72.4,69.0,29.70,SSE,167,9.0,13.0,89,0.00,,---,0.00,VWS V14.01,2013-04-15 11:49:00,
2013-04-15 06:50:00,72.4,69.0,29.70,SSE,161,10.0,13.0,89,0.00,,---,0.00,VWS V14.01,2013-04-15 11:50:00,
2013-04-15 06:51:00,72.5,69.1,29.70,SSE,165,7.0,18.0,89,0.00,,---,0.00,VWS V14.01,2013-04-15 11:51:00,
2013-04-15 06:52:00,72.5,69.1,29.70,South,181,13.0,14.0,89,0.00,,---,0.00,VWS V14.01,2013-04-15 11:52:00,
2013-04-15 06:53:00,72.5,69.1,29.70,SSE,165,11.0,14.0,89,0.00,,---,0.00,VWS V14.01,2013-04-15 11:53:00,
2013-04-15 06:54:00,72.5,69.1,29.70,SSE,159,13.0,15.0,89,0.00,,---,0.00,VWS V14.01,2013-04-15 11:54:00,
2013-04-15 06:55:00,72.5,69.1,29.70,SSE,165,9.0,13.0,89,0.00,,---,0.00,VWS V14.01,2013-04-15 11:55:00,
2013-04-15 06:57:00,72.5,69.1,29.70,South,181,13.0,16.0,89,0.00,,---,0.00,VWS V14.01,2013-04-15 11:57:00,
2013-04-15 06:58:00,72.5,69.1,29.70,South,173,13.0,15.0,89,0.00,,---,0.00,VWS V14.01,2013-04-15 11:58:00,
2013-04-15 06:59:00,72.5,69.1,29.70,SSE,155,12.0,15.0,89,0.00,,---,0.00,VWS V14.01,2013-04-15 11:59:00,
2013-04-15 07:00:00,72.5,69.1,29.70,SSE,165,14.0,15.0,89,0.00,,---,0.00,VWS V14.01,2013-04-15 12:00:00,
2013-04-15 07:01:00,72.5,68.8,29.70,SSE,157,13.0,15.0,88,0.00,,---,0.00,VWS V14.01,2013-04-15 12:01:00,
2013-04-15 07:02:00,72.6,68.8,29.70,SSE,162,8.0,13.0,88,0.00,,---,0.00,VWS V14.01,2013-04-15 12:02:00,
2013-04-15 07:05:00,72.6,68.8,29.70,SSE,168,11.0,15.0,88,0.00,,---,0.00,VWS V14.01,2013-04-15 12:05:00,
2013-04-15 07:06:00,72.6,68.8,29.70,SSE,161,13.0,16.0,88,0.00,,---,0.00,VWS V14.01,2013-04-15 12:06:00,
2013-04-15 07:07:00,72.6,68.8,29.70,SSE,155,6.0,13.0,88,0.00,,---,0.00,VWS V14.01,2013-04-15 12:07:00,
2013-04-15 07:08:00,72.6,68.8,29.70,SSE,163,12.0,13.0,88,0.00,,---,0.00,VWS V14.01,2013-04-15 12:08:00,
2013-04-15 07:09:00,72.6,68.8,29.70,SSE,162,10.0,12.0,88,0.00,,---,0.00,VWS V14.01,2013-04-15 12:09:00,
2013-04-15 07:10:00,72.6,68.8,29.70,SSE,164,9.0,12.0,88,0.00,,---,0.00,VWS V14.01,2013-04-15 12:10:00,
2013-04-15 07:11:00,72.7,68.9,29.70,SSE,167,12.0,13.0,88,0.00,,---,0.00,VWS V14.01,2013-04-15 12:11:00,
2013-04-15 07:12:00,72.7,68.9,29.70,SSE,157,7.0,14.0,88,0.00,,---,0.00,VWS V14.01,2013-04-15 12:12:00,
2013-04-15 07:13:00,72.6,68.8,29.70,South,173,12.0,17.0,88,0.00,,---,0.00,VWS V14.01,2013-04-15 12:13:00,
2013-04-15 07:14:00,72.6,68.8,29.71,SSE,155,12.0,16.0,88,0.00,,---,0.00,VWS V14.01,2013-04-15 12:14:00,
2013-04-15 07:15:00,72.6,68.8,29.71,SSE,159,12.0,16.0,88,0.00,,---,0.00,VWS V14.01,2013-04-15 12:15:00,
2013-04-15 07:16:00,72.7,68.9,29.71,South,170,5.0,11.0,88,0.00,,---,0.00,VWS V14.01,2013-04-15 12:16:00,
2013-04-15 07:17:00,72.7,68.9,29.71,SSE,167,9.0,10.0,88,0.00,,---,0.00,VWS V14.01,2013-04-15 12:17:00,
2013-04-15 07:18:00,72.7,68.9,29.71,South,178,5.0,12.0,88,0.00,,---,0.00,VWS V14.01,2013-04-15 12:18:00,
2013-04-15 07:19:00,72.7,68.9,29.71,South,171,12.0,13.0,88,0.00,,---,0.00,VWS V14.01,2013-04-15 12:19:00,
2013-04-15 07:20:00,72.7,68.9,29.71,South,172,10.0,13.0,88,0.00,,---,0.00,VWS V14.01,2013-04-15 12:20:00,
2013-04-15 07:21:00,72.7,68.9,29.71,South,173,9.0,11.0,88,0.00,,---,0.00,VWS V14.01,2013-04-15 12:21:00,
2013-04-15 07:22:00,72.7,68.9,29.71,SSE,168,11.0,14.0,88,0.00,,---,0.00,VWS V14.01,2013-04-15 12:22:00,
2013-04-15 07:23:00,72.7,68.9,29.71,SSE,159,8.0,12.0,88,0.00,,---,0.00,VWS V14.01,2013-04-15 12:23:00,
2013-04-15 07:24:00,72.7,68.9,29.71,SSE,165,6.0,12.0,88,0.00,,---,0.00,VWS V14.01,2013-04-15 12:24:00,
2013-04-15 07:25:00,72.7,68.9,29.71,South,171,10.0,12.0,88,0.00,,---,0.00,VWS V14.01,2013-04-15 12:25:00,
2013-04-15 07:27:00,72.8,69.0,29.71,SSE,167,13.0,15.0,88,0.00,,---,0.00,VWS V14.01,2013-04-15 12:27:00,
2013-04-15 07:28:00,72.8,69.0,29.71,SSE,168,9.0,15.0,88,0.00,,---,0.00,VWS V14.01,2013-04-15 12:28:00,
2013-04-15 07:29:00,72.8,69.0,29.71,SSE,165,10.0,12.0,88,0.00,,---,0.00,VWS V14.01,2013-04-15 12:29:00,
2013-04-15 07:30:00,72.8,69.0,29.71,SSE,161,11.0,12.0,88,0.00,,---,0.00,VWS V14.01,2013-04-15 12:30:00,
2013-04-15 07:31:00,72.8,69.0,29.71,SSE,163,10.0,12.0,88,0.00,,---,0.00,VWS V14.01,2013-04-15 12:31:00,
2013-04-15 07:32:00,72.8,69.0,29.71,South,187,8.0,10.0,88,0.00,,---,0.00,VWS V14.01,2013-04-15 12:32:00,
2013-04-15 07:33:00,72.9,69.1,29.71,SSE,159,10.0,10.0,88,0.00,,---,0.00,VWS V14.01,2013-04-15 12:33:00,
2013-04-15 07:34:00,72.9,69.1,29.71,SSE,149,11.0,12.0,88,0.00,,---,0.00,VWS V14.01,2013-04-15 12:34:00,
2013-04-15 07:35:00,72.9,69.1,29.71,SSE,148,9.0,12.0,88,0.00,,---,0.00,VWS V14.01,2013-04-15 12:35:00,
2013-04-15 07:36:00,72.9,69.1,29.71,SSE,166,11.0,14.0,88,0.00,,---,0.00,VWS V14.01,2013-04-15 12:36:00,
2013-04-15 07:37:00,72.9,69.1,29.72,South,173,9.0,11.0,88,0.00,,---,0.00,VWS V14.01,2013-04-15 12:37:00,
2013-04-15 07:38:00,72.9,69.1,29.72,SSE,156,5.0,10.0,88,0.00,,---,0.00,VWS V14.01,2013-04-15 12:38:00,
2013-04-15 07:39:00,72.9,69.1,29.72,SSE,163,11.0,13.0,88,0.00,,---,0.00,VWS V14.01,2013-04-15 12:39:00,
2013-04-15 07:40:00,72.9,69.1,29.72,South,180,12.0,12.0,88,0.00,,---,0.00,VWS V14.01,2013-04-15 12:40:00,
2013-04-15 07:41:00,73.0,69.2,29.72,SSE,150,9.0,11.0,88,0.00,,---,0.00,VWS V14.01,2013-04-15 12:41:00,
2013-04-15 07:42:00,73.0,68.9,29.72,South,171,10.0,12.0,87,0.00,,---,0.00,VWS V14.01,2013-04-15 12:42:00,
2013-04-15 07:43:00,73.0,68.9,29.72,SSE,165,12.0,12.0,87,0.00,,---,0.00,VWS V14.01,2013-04-15 12:43:00,
2013-04-15 07:44:00,73.0,68.9,29.72,South,173,7.0,12.0,87,0.00,,---,0.00,VWS V14.01,2013-04-15 12:44:00,
2013-04-15 07:45:00,73.0,68.9,29.72,SSE,159,8.0,12.0,87,0.00,,---,0.00,VWS V14.01,2013-04-15 12:45:00,
2013-04-15 07:46:00,73.1,69.0,29.72,SSE,161,10.0,13.0,87,0.00,,---,0.00,VWS V14.01,2013-04-15 12:46:00,
2013-04-15 07:47:00,73.1,69.0,29.72,SSE,168,5.0,10.0,87,0.00,,---,0.00,VWS V14.01,2013-04-15 12:47:00,
2013-04-15 07:48:00,73.1,69.0,29.72,South,186,7.0,10.0,87,0.00,,---,0.00,VWS V14.01,2013-04-15 12:48:00,
2013-04-15 07:49:00,73.2,69.1,29.72,SE,143,4.0,8.0,87,0.00,,---,0.00,VWS V14.01,2013-04-15 12:49:00,
2013-04-15 07:50:00,73.2,69.1,29.72,South,183,5.0,8.0,87,0.00,,---,0.00,VWS V14.01,2013-04-15 12:50:00,
2013-04-15 07:51:00,73.2,69.1,29.72,SSE,165,5.0,7.0,87,0.00,,---,0.00,VWS V14.01,2013-04-15 12:51:00,
2013-04-15 07:52:00,73.2,69.1,29.72,SSE,163,6.0,9.0,87,0.00,,---,0.00,VWS V14.01,2013-04-15 12:52:00,
2013-04-15 07:53:00,73.3,69.2,29.72,SSE,159,6.0,10.0,87,0.00,,---,0.00,VWS V14.01,2013-04-15 12:53:00,
2013-04-15 07:54:00,73.3,69.2,29.72,SSE,150,6.0,12.0,87,0.00,,---,0.00,VWS V14.01,2013-04-15 12:54:00,
2013-04-15 07:55:00,73.3,69.2,29.72,SSE,150,9.0,12.0,87,0.00,,---,0.00,VWS V14.01,2013-04-15 12:55:00,
2013-04-15 07:56:00,73.3,69.2,29.72,SSE,167,11.0,11.0,87,0.00,,---,0.00,VWS V14.01,2013-04-15 12:56:00,
2013-04-15 07:57:00,73.4,69.3,29.72,SE,144,10.0,12.0,87,0.00,,---,0.00,VWS V14.01,2013-04-15 12:57:00,
2013-04-15 07:58:00,73.4,69.3,29.72,SSE,162,5.0,10.0,87,0.00,,---,0.00,VWS V14.01,2013-04-15 12:58:00,
2013-04-15 07:59:00,73.4,69.3,29.72,SSE,167,4.0,11.0,87,0.00,,---,0.00,VWS V14.01,2013-04-15 12:59:00,
2013-04-15 08:00:00,73.5,69.4,29.72,SSE,155,3.0,11.0,87,0.00,,---,0.00,VWS V14.01,2013-04-15 13:00:00,
2013-04-15 08:01:00,73.5,69.1,29.72,SSE,163,6.0,11.0,86,0.00,,---,0.00,VWS V14.01,2013-04-15 13:01:00,
2013-04-15 08:02:00,73.6,69.2,29.72,SSE,159,10.0,11.0,86,0.00,,---,0.00,VWS V14.01,2013-04-15 13:02:00,
2013-04-15 08:03:00,73.6,69.2,29.72,SSE,162,7.0,13.0,86,0.00,,---,0.00,VWS V14.01,2013-04-15 13:03:00,
2013-04-15 08:04:00,73.6,69.2,29.72,SE,146,6.0,11.0,86,0.00,,---,0.00,VWS V14.01,2013-04-15 13:04:00,
2013-04-15 08:05:00,73.6,69.2,29.72,SSE,161,7.0,11.0,86,0.00,,---,0.00,VWS V14.01,2013-04-15 13:05:00,
2013-04-15 08:07:00,73.7,69.3,29.72,SSE,155,16.0,16.0,86,0.00,,---,0.00,VWS V14.01,2013-04-15 13:07:00,
2013-04-15 08:08:00,73.7,69.3,29.72,South,169,11.0,16.0,86,0.00,,---,0.00,VWS V14.01,2013-04-15 13:08:00,
2013-04-15 08:09:00,73.7,69.3,29.73,South,176,6.0,13.0,86,0.00,,---,0.00,VWS V14.01,2013-04-15 13:09:00,
2013-04-15 08:10:00,73.7,69.3,29.73,SE,146,9.0,13.0,86,0.00,,---,0.00,VWS V14.01,2013-04-15 13:10:00,
2013-04-15 08:11:00,73.8,69.4,29.72,SSE,157,7.0,14.0,86,0.00,,---,0.00,VWS V14.01,2013-04-15 13:11:00,
2013-04-15 08:12:00,73.8,69.4,29.72,SE,145,15.0,18.0,86,0.00,,---,0.00,VWS V14.01,2013-04-15 13:12:00,
2013-04-15 08:13:00,73.8,69.4,29.72,South,180,14.0,15.0,86,0.00,,---,0.00,VWS V14.01,2013-04-15 13:13:00,
2013-04-15 08:14:00,73.8,69.4,29.73,SE,144,5.0,14.0,86,0.00,,---,0.00,VWS V14.01,2013-04-15 13:14:00,
2013-04-15 08:15:00,73.8,69.3,29.73,SE,144,5.0,14.0,86,0.00,,---,0.00,VWS V14.01,2013-04-15 13:15:00,
2013-04-15 08:16:00,73.9,69.4,29.73,South,176,11.0,12.0,86,0.00,,---,0.00,VWS V14.01,2013-04-15 13:16:00,
2013-04-15 08:17:00,73.9,69.4,29.73,SSE,157,10.0,11.0,86,0.00,,---,0.00,VWS V14.01,2013-04-15 13:17:00,
2013-04-15 08:18:00,73.9,69.4,29.73,SSE,157,9.0,12.0,86,0.00,,---,0.00,VWS V14.01,2013-04-15 13:18:00,
2013-04-15 08:19:00,74.0,69.6,29.73,South,170,10.0,12.0,86,0.00,,---,0.00,VWS V14.01,2013-04-15 13:19:00,
2013-04-15 08:20:00,74.0,69.6,29.73,SSE,164,12.0,12.0,86,0.00,,---,0.00,VWS V14.01,2013-04-15 13:20:00,
2013-04-15 08:25:00,74.1,69.7,29.73,South,169,8.0,10.0,86,0.00,,---,0.00,VWS V14.01,2013-04-15 13:25:00,
2013-04-15 08:30:00,74.2,69.4,29.73,SSE,167,10.0,10.0,85,0.00,,---,0.00,VWS V14.01,2013-04-15 13:30:00,
2013-04-15 08:35:00,74.3,69.5,29.73,SSE,160,6.0,10.0,85,0.00,,---,0.00,VWS V14.01,2013-04-15 13:35:00,
2013-04-15 08:40:00,74.5,69.7,29.73,SSE,156,9.0,10.0,85,0.00,,---,0.00,VWS V14.01,2013-04-15 13:40:00,
2013-04-15 08:45:00,74.7,69.9,29.73,South,169,11.0,13.0,85,0.00,,---,0.00,VWS V14.01,2013-04-15 13:45:00,
2013-04-15 08:50:00,74.7,69.6,29.73,SSE,150,6.0,16.0,84,0.00,,---,0.00,VWS V14.01,2013-04-15 13:50:00,
2013-04-15 08:55:00,74.8,70.0,29.73,South,175,13.0,13.0,85,0.00,,---,0.00,VWS V14.01,2013-04-15 13:55:00,
2013-04-15 09:00:00,74.9,69.7,29.74,South,183,11.0,14.0,84,0.00,,---,0.00,VWS V14.01,2013-04-15 14:00:00,
2013-04-15 09:05:00,75.1,69.9,29.74,SSE,163,13.0,16.0,84,0.00,,---,0.00,VWS V14.01,2013-04-15 14:05:00,
2013-04-15 09:10:00,75.1,69.9,29.74,SSE,148,6.0,10.0,84,0.00,,---,0.00,VWS V14.01,2013-04-15 14:10:00,
2013-04-15 09:15:00,75.2,70.0,29.74,SSE,157,11.0,15.0,84,0.00,,---,0.00,VWS V14.01,2013-04-15 14:15:00,
2013-04-15 09:20:00,75.4,70.2,29.74,SE,141,13.0,14.0,84,0.00,,---,0.00,VWS V14.01,2013-04-15 14:20:00,
2013-04-15 09:25:00,75.5,70.0,29.74,SSE,165,14.0,14.0,83,0.00,,---,0.00,VWS V14.01,2013-04-15 14:25:00,
2013-04-15 09:30:00,75.6,70.1,29.74,SSE,160,9.0,15.0,83,0.00,,---,0.00,VWS V14.01,2013-04-15 14:30:00,
2013-04-15 09:35:00,75.8,69.9,29.74,SSE,148,17.0,17.0,82,0.00,,---,0.00,VWS V14.01,2013-04-15 14:35:00,
2013-04-15 09:40:00,75.8,69.9,29.74,SE,134,7.0,12.0,82,0.00,,---,0.00,VWS V14.01,2013-04-15 14:40:00,
2013-04-15 09:45:00,76.2,69.9,29.74,SSE,150,10.0,12.0,81,0.00,,---,0.00,VWS V14.01,2013-04-15 14:45:00,
2013-04-15 09:50:00,76.6,70.3,29.74,SSE,165,14.0,17.0,81,0.00,,---,0.00,VWS V14.01,2013-04-15 14:50:00,
2013-04-15 09:55:00,76.8,69.8,29.74,South,178,13.0,14.0,79,0.00,,---,0.00,VWS V14.01,2013-04-15 14:55:00,
2013-04-15 10:00:00,77.0,70.0,29.74,SSE,150,14.0,17.0,79,0.00,,---,0.00,VWS V14.01,2013-04-15 15:00:00,
2013-04-15 10:05:00,77.3,70.3,29.75,South,173,10.0,17.0,79,0.00,,---,0.00,VWS V14.01,2013-04-15 15:05:00,
2013-04-15 10:10:00,77.8,70.4,29.74,South,173,14.0,20.0,78,0.00,,---,0.00,VWS V14.01,2013-04-15 15:10:00,
2013-04-15 10:15:00,78.1,70.7,29.74,SE,133,15.0,23.0,78,0.00,,---,0.00,VWS V14.01,2013-04-15 15:15:00,
2013-04-15 10:20:00,78.3,70.1,29.75,SSE,159,11.0,17.0,76,0.00,,---,0.00,VWS V14.01,2013-04-15 15:20:00,
2013-04-15 10:25:00,79.0,70.4,29.75,South,184,14.0,21.0,75,0.00,,---,0.00,VWS V14.01,2013-04-15 15:25:00,
2013-04-15 10:30:00,79.7,70.7,29.74,SSE,148,15.0,19.0,74,0.00,,---,0.00,VWS V14.01,2013-04-15 15:30:00,
2013-04-15 10:35:00,79.5,70.1,29.74,South,179,16.0,20.0,73,0.00,,---,0.00,VWS V14.01,2013-04-15 15:35:00,
2013-04-15 10:40:00,79.5,70.5,29.75,SE,140,11.0,26.0,74,0.00,,---,0.00,VWS V14.01,2013-04-15 15:40:00,
2013-04-15 10:45:00,79.7,70.7,29.75,SSE,159,16.0,20.0,74,0.00,,---,0.00,VWS V14.01,2013-04-15 15:45:00,
2013-04-15 10:50:00,79.9,70.9,29.75,SSE,167,17.0,17.0,74,0.00,,---,0.00,VWS V14.01,2013-04-15 15:50:00,
2013-04-15 10:55:00,80.6,71.2,29.75,South,171,12.0,20.0,73,0.00,,---,0.00,VWS V14.01,2013-04-15 15:55:00,
2013-04-15 11:00:00,79.8,70.4,29.75,SE,130,12.0,20.0,73,0.00,,---,0.00,VWS V14.01,2013-04-15 16:00:00,
2013-04-15 11:05:00,79.0,70.4,29.75,SE,135,18.0,25.0,75,0.00,,---,0.00,VWS V14.01,2013-04-15 16:05:00,
2013-04-15 11:10:00,79.5,70.5,29.74,ESE,123,18.0,20.0,74,0.00,,---,0.00,VWS V14.01,2013-04-15 16:10:00,
2013-04-15 11:15:00,79.9,70.5,29.74,SSE,150,14.0,20.0,73,0.00,,---,0.00,VWS V14.01,2013-04-15 16:15:00,
2013-04-15 11:20:00,80.1,70.7,29.75,South,169,16.0,22.0,73,0.00,,---,0.00,VWS V14.01,2013-04-15 16:20:00,
2013-04-15 11:25:00,80.8,70.9,29.75,SE,139,13.0,18.0,72,0.00,,---,0.00,VWS V14.01,2013-04-15 16:25:00,
2013-04-15 11:30:00,80.8,70.1,29.74,ESE,120,10.0,19.0,70,0.00,,---,0.00,VWS V14.01,2013-04-15 16:30:00,
2013-04-15 11:35:00,80.9,70.6,29.74,SSE,153,11.0,19.0,71,0.00,,---,0.00,VWS V14.01,2013-04-15 16:35:00,
2013-04-15 11:40:00,80.5,70.2,29.74,SSE,167,20.0,20.0,71,0.00,,---,0.00,VWS V14.01,2013-04-15 16:40:00,
2013-04-15 11:45:00,80.1,69.9,29.74,ESE,107,11.0,22.0,71,0.00,,---,0.00,VWS V14.01,2013-04-15 16:45:00,
2013-04-15 11:50:00,79.7,69.9,29.74,SE,133,14.0,25.0,72,0.00,,---,0.00,VWS V14.01,2013-04-15 16:50:00,
2013-04-15 11:55:00,79.8,70.4,29.74,ESE,106,13.0,20.0,73,0.00,,---,0.00,VWS V14.01,2013-04-15 16:55:00,
2013-04-15 12:00:00,79.8,70.0,29.74,SSE,163,11.0,19.0,72,0.00,,---,0.00,VWS V14.01,2013-04-15 17:00:00,
2013-04-15 12:05:00,80.2,70.8,29.74,SE,145,9.0,17.0,73,0.00,,---,0.00,VWS V14.01,2013-04-15 17:05:00,
2013-04-15 12:10:00,80.5,70.7,29.74,SE,142,19.0,20.0,72,0.00,,---,0.00,VWS V14.01,2013-04-15 17:10:00,
2013-04-15 12:15:00,80.2,70.4,29.74,SSE,164,11.0,17.0,72,0.00,,---,0.00,VWS V14.01,2013-04-15 17:15:00,
2013-04-15 12:20:00,79.9,70.1,29.74,SE,131,13.0,21.0,72,0.00,,---,0.00,VWS V14.01,2013-04-15 17:20:00,
2013-04-15 12:21:00,79.8,70.0,29.74,SSE,167,18.0,19.0,72,0.00,,---,0.00,VWS V14.01,2013-04-15 17:21:00,
2013-04-15 12:25:00,80.2,70.8,29.74,SE,131,14.0,16.0,73,0.00,,---,0.00,VWS V14.01,2013-04-15 17:25:00,
2013-04-15 12:30:00,80.7,71.2,29.74,South,171,18.0,18.0,73,0.00,,---,0.00,VWS V14.01,2013-04-15 17:30:00,
2013-04-15 12:35:00,81.1,70.8,29.73,ESE,113,12.0,12.0,71,0.00,,---,0.00,VWS V14.01,2013-04-15 17:35:00,
2013-04-15 12:39:00,80.9,70.6,29.73,SE,124,14.0,23.0,71,0.00,,---,0.00,VWS V14.01,2013-04-15 17:39:00,
2013-04-15 12:44:00,80.4,70.6,29.73,SE,141,8.0,15.0,72,0.00,,---,0.00,VWS V14.01,2013-04-15 17:44:00,
2013-04-15 12:49:00,80.9,70.6,29.73,SSE,157,16.0,24.0,71,0.00,,---,0.00,VWS V14.01,2013-04-15 17:49:00,
2013-04-15 12:54:00,81.7,70.6,29.73,SSE,167,7.0,21.0,69,0.00,,---,0.00,VWS V14.01,2013-04-15 17:54:00,
2013-04-15 13:00:00,81.4,70.3,29.73,South,180,13.0,20.0,69,0.00,,---,0.00,VWS V14.01,2013-04-15 18:00:00,
2013-04-15 13:05:00,80.6,69.9,29.73,ESE,118,10.0,20.0,70,0.00,,---,0.00,VWS V14.01,2013-04-15 18:05:00,
2013-04-15 13:10:00,80.0,70.2,29.73,SE,136,16.0,19.0,72,0.00,,---,0.00,VWS V14.01,2013-04-15 18:10:00,
2013-04-15 13:15:00,80.6,70.8,29.73,SE,133,13.0,22.0,72,0.00,,---,0.00,VWS V14.01,2013-04-15 18:15:00,
2013-04-15 13:20:00,80.5,70.2,29.73,SSE,160,13.0,24.0,71,0.00,,---,0.00,VWS V14.01,2013-04-15 18:20:00,
2013-04-15 13:25:00,79.8,70.4,29.73,SE,141,10.0,17.0,73,0.00,,---,0.00,VWS V14.01,2013-04-15 18:25:00,
2013-04-15 13:29:00,80.6,71.6,29.73,SSE,161,14.0,21.0,74,0.00,,---,0.00,VWS V14.01,2013-04-15 18:29:00,
2013-04-15 13:34:00,81.3,70.6,29.72,SE,146,14.0,18.0,70,0.00,,---,0.00,VWS V14.01,2013-04-15 18:34:00,
2013-04-15 13:39:00,82.1,71.8,29.72,SSE,155,13.0,17.0,71,0.00,,---,0.00,VWS V14.01,2013-04-15 18:39:00,
2013-04-15 13:44:00,82.3,70.7,29.72,ESE,121,16.0,17.0,68,0.00,,---,0.00,VWS V14.01,2013-04-15 18:44:00,
2013-04-15 13:49:00,82.0,70.8,29.72,ESE,113,16.0,25.0,69,0.00,,---,0.00,VWS V14.01,2013-04-15 18:49:00,
2013-04-15 13:54:00,82.0,71.3,29.71,SE,134,19.0,20.0,70,0.00,,---,0.00,VWS V14.01,2013-04-15 18:54:00,
2013-04-15 13:59:00,81.8,70.6,29.71,SE,146,18.0,20.0,69,0.00,,---,0.00,VWS V14.01,2013-04-15 18:59:00,
2013-04-15 14:04:00,81.9,70.7,29.71,SE,146,9.0,18.0,69,0.00,,---,0.00,VWS V14.01,2013-04-15 19:04:00,
2013-04-15 14:09:00,81.9,70.3,29.71,SE,144,24.0,25.0,68,0.00,,---,0.00,VWS V14.01,2013-04-15 19:09:00,
2013-04-15 14:14:00,82.0,70.8,29.70,South,183,18.0,18.0,69,0.00,,---,0.00,VWS V14.01,2013-04-15 19:14:00,
2013-04-15 14:19:00,81.6,70.4,29.70,SE,138,17.0,18.0,69,0.00,,---,0.00,VWS V14.01,2013-04-15 19:19:00,
2013-04-15 14:24:00,81.9,70.7,29.70,SE,144,15.0,21.0,69,0.00,,---,0.00,VWS V14.01,2013-04-15 19:24:00,
2013-04-15 14:29:00,82.3,70.7,29.70,ESE,113,14.0,21.0,68,0.00,,---,0.00,VWS V14.01,2013-04-15 19:29:00,
2013-04-15 14:34:00,82.7,70.6,29.70,SE,140,15.0,20.0,67,0.00,,---,0.00,VWS V14.01,2013-04-15 19:34:00,
2013-04-15 14:39:00,82.8,71.2,29.70,SE,138,22.0,22.0,68,0.00,,---,0.00,VWS V14.01,2013-04-15 19:39:00,
2013-04-15 14:44:00,82.4,70.8,29.70,SE,126,13.0,16.0,68,0.00,,---,0.00,VWS V14.01,2013-04-15 19:44:00,
2013-04-15 14:49:00,82.3,70.7,29.70,SSE,161,10.0,21.0,68,0.00,,---,0.00,VWS V14.01,2013-04-15 19:49:00,
2013-04-15 14:54:00,82.1,70.5,29.70,SSE,163,15.0,23.0,68,0.00,,---,0.00,VWS V14.01,2013-04-15 19:54:00,
2013-04-15 14:57:00,81.8,70.2,29.70,SE,145,11.0,16.0,68,0.00,,---,0.00,VWS V14.01,2013-04-15 19:57:00,
2013-04-15 15:01:00,81.8,70.6,29.70,ESE,115,17.0,18.0,69,0.00,,---,0.00,VWS V14.01,2013-04-15 20:01:00,
2013-04-15 15:02:00,81.8,70.6,29.70,SE,144,14.0,24.0,69,0.00,,---,0.00,VWS V14.01,2013-04-15 20:02:00,
2013-04-15 15:07:00,81.8,70.6,29.70,SE,140,10.0,15.0,69,0.00,,---,0.00,VWS V14.01,2013-04-15 20:07:00,
2013-04-15 15:12:00,81.8,70.2,29.70,SE,140,12.0,16.0,68,0.00,,---,0.00,VWS V14.01,2013-04-15 20:12:00,
2013-04-15 15:17:00,82.0,70.8,29.69,SE,140,19.0,19.0,69,0.00,,---,0.00,VWS V14.01,2013-04-15 20:17:00,
2013-04-15 15:22:00,82.1,71.3,29.69,SE,133,11.0,17.0,70,0.00,,---,0.00,VWS V14.01,2013-04-15 20:22:00,
2013-04-15 15:27:00,82.5,70.9,29.69,SE,141,10.0,10.0,68,0.00,,---,0.00,VWS V14.01,2013-04-15 20:27:00,
2013-04-15 15:32:00,82.5,70.4,29.69,SE,138,17.0,17.0,67,0.00,,---,0.00,VWS V14.01,2013-04-15 20:32:00,
2013-04-15 15:37:00,82.4,70.3,29.68,SE,140,19.0,19.0,67,0.00,,---,0.00,VWS V14.01,2013-04-15 20:37:00,
2013-04-15 15:42:00,82.3,70.3,29.68,SSE,161,20.0,20.0,67,0.00,,---,0.00,VWS V14.01,2013-04-15 20:42:00,
2013-04-15 15:47:00,82.2,70.6,29.68,SE,140,13.0,13.0,68,0.00,,---,0.00,VWS V14.01,2013-04-15 20:47:00,
2013-04-15 15:52:00,82.1,70.9,29.68,ESE,117,17.0,17.0,69,0.00,,---,0.00,VWS V14.01,2013-04-15 20:52:00,
2013-04-15 15:57:00,81.7,70.6,29.68,SSE,163,12.0,12.0,69,0.00,,---,0.00,VWS V14.01,2013-04-15 20:57:00,
2013-04-15 16:02:00,81.8,70.6,29.68,ESE,113,11.0,22.0,69,0.00,,---,0.00,VWS V14.01,2013-04-15 21:02:00,
2013-04-15 16:07:00,82.1,71.3,29.68,SE,135,7.0,9.0,70,0.00,,---,0.00,VWS V14.01,2013-04-15 21:07:00,
2013-04-15 16:12:00,82.0,70.8,29.68,SE,138,15.0,18.0,69,0.00,,---,0.00,VWS V14.01,2013-04-15 21:12:00,
2013-04-15 16:17:00,81.6,71.3,29.67,SSE,152,6.0,7.0,71,0.00,,---,0.00,VWS V14.01,2013-04-15 21:17:00,
2013-04-15 16:22:00,82.0,71.7,29.67,ESE,123,11.0,11.0,71,0.00,,---,0.00,VWS V14.01,2013-04-15 21:22:00,
2013-04-15 16:27:00,81.8,71.5,29.67,SE,127,9.0,15.0,71,0.00,,---,0.00,VWS V14.01,2013-04-15 21:27:00,
2013-04-15 16:32:00,81.5,71.6,29.67,SE,136,14.0,14.0,72,0.00,,---,0.00,VWS V14.01,2013-04-15 21:32:00,
2013-04-15 16:37:00,81.3,71.4,29.67,SE,126,13.0,20.0,72,0.00,,---,0.00,VWS V14.01,2013-04-15 21:37:00,
2013-04-15 16:42:00,80.9,71.4,29.67,ESE,114,10.0,15.0,73,0.00,,---,0.00,VWS V14.01,2013-04-15 21:42:00,
2013-04-15 16:47:00,80.7,71.2,29.67,SE,135,14.0,16.0,73,0.00,,---,0.00,VWS V14.01,2013-04-15 21:47:00,
2013-04-15 16:52:00,80.7,71.2,29.66,ESE,113,14.0,19.0,73,0.00,,---,0.00,VWS V14.01,2013-04-15 21:52:00,
2013-04-15 16:57:00,80.8,71.3,29.66,SE,130,20.0,20.0,73,0.00,,---,0.00,VWS V14.01,2013-04-15 21:57:00,
2013-04-15 17:02:00,80.9,71.4,29.66,SE,139,5.0,14.0,73,0.00,,---,0.00,VWS V14.01,2013-04-15 22:02:00,
2013-04-15 17:07:00,80.8,71.3,29.66,ESE,122,15.0,19.0,73,0.00,,---,0.00,VWS V14.01,2013-04-15 22:07:00,
2013-04-15 17:12:00,80.5,71.5,29.66,SE,126,12.0,17.0,74,0.00,,---,0.00,VWS V14.01,2013-04-15 22:12:00,
2013-04-15 17:17:00,80.3,71.3,29.66,SE,144,13.0,19.0,74,0.00,,---,0.00,VWS V14.01,2013-04-15 22:17:00,
2013-04-15 17:22:00,80.3,71.7,29.66,ESE,111,10.0,13.0,75,0.00,,---,0.00,VWS V14.01,2013-04-15 22:22:00,
2013-04-15 17:27:00,80.3,71.7,29.66,SE,137,13.0,18.0,75,0.00,,---,0.00,VWS V14.01,2013-04-15 22:27:00,
2013-04-15 17:32:00,79.7,71.5,29.66,East,99,14.0,14.0,76,0.00,,---,0.00,VWS V14.01,2013-04-15 22:32:00,
2013-04-15 17:37:00,79.3,71.1,29.66,SE,130,7.0,16.0,76,0.00,,---,0.00,VWS V14.01,2013-04-15 22:37:00,
2013-04-15 17:42:00,79.7,71.5,29.66,ESE,121,14.0,17.0,76,0.00,,---,0.00,VWS V14.01,2013-04-15 22:42:00,
2013-04-15 17:47:00,79.3,71.5,29.67,SE,134,13.0,14.0,77,0.00,,---,0.00,VWS V14.01,2013-04-15 22:47:00,
2013-04-15 17:52:00,79.0,71.6,29.67,SE,135,12.0,13.0,78,0.00,,---,0.00,VWS V14.01,2013-04-15 22:52:00,
2013-04-15 17:57:00,78.9,71.5,29.67,ESE,123,14.0,17.0,78,0.00,,---,0.00,VWS V14.01,2013-04-15 22:57:00,
2013-04-15 18:02:00,78.7,71.3,29.67,SE,133,10.0,16.0,78,0.00,,---,0.00,VWS V14.01,2013-04-15 23:02:00,
2013-04-15 18:07:00,78.5,71.4,29.67,SE,130,6.0,14.0,79,0.00,,---,0.00,VWS V14.01,2013-04-15 23:07:00,
2013-04-15 18:12:00,78.4,71.3,29.66,ESE,110,14.0,18.0,79,0.00,,---,0.00,VWS V14.01,2013-04-15 23:12:00,
2013-04-15 18:17:00,78.1,71.4,29.66,ESE,121,7.0,11.0,80,0.00,,---,0.00,VWS V14.01,2013-04-15 23:17:00,
2013-04-15 18:22:00,78.1,71.4,29.66,SE,129,9.0,10.0,80,0.00,,---,0.00,VWS V14.01,2013-04-15 23:22:00,
2013-04-15 18:27:00,78.1,71.4,29.66,SE,132,13.0,14.0,80,0.00,,---,0.00,VWS V14.01,2013-04-15 23:27:00,
2013-04-15 18:32:00,77.9,71.6,29.67,East,99,16.0,17.0,81,0.00,,---,0.00,VWS V14.01,2013-04-15 23:32:00,
2013-04-15 18:37:00,77.7,71.4,29.67,ESE,111,11.0,12.0,81,0.00,,---,0.00,VWS V14.01,2013-04-15 23:37:00,
2013-04-15 18:42:00,77.5,71.6,29.67,ESE,115,11.0,11.0,82,0.00,,---,0.00,VWS V14.01,2013-04-15 23:42:00,
2013-04-15 18:47:00,77.5,71.6,29.67,SSE,149,13.0,13.0,82,0.00,,---,0.00,VWS V14.01,2013-04-15 23:47:00,
2013-04-15 18:52:00,77.2,71.3,29.67,SSE,153,11.0,15.0,82,0.00,,---,0.00,VWS V14.01,2013-04-15 23:52:00,
2013-04-15 18:56:00,76.9,71.3,29.67,ESE,111,12.0,14.0,83,0.00,,---,0.00,VWS V14.01,2013-04-15 23:56:00,
2013-04-15 19:02:00,76.8,71.2,29.67,ESE,112,8.0,10.0,83,0.00,,---,0.00,VWS V14.01,2013-04-16 00:02:00,
2013-04-15 19:07:00,76.7,71.5,29.67,SE,137,7.0,7.0,84,0.00,,---,0.00,VWS V14.01,2013-04-16 00:07:00,
2013-04-15 19:12:00,76.6,71.4,29.67,SE,125,5.0,9.0,84,0.00,,---,0.00,VWS V14.01,2013-04-16 00:12:00,
2013-04-15 19:16:00,76.4,71.6,29.67,East,101,10.0,15.0,85,0.00,,---,0.00,VWS V14.01,2013-04-16 00:16:00,
2013-04-15 19:22:00,76.1,71.3,29.68,SE,125,6.0,9.0,85,0.00,,---,0.00,VWS V14.01,2013-04-16 00:22:00,
2013-04-15 19:27:00,75.8,71.3,29.68,ESE,109,10.0,10.0,86,0.00,,---,0.00,VWS V14.01,2013-04-16 00:27:00,
2013-04-15 19:31:00,75.6,71.1,29.68,East,101,5.0,7.0,86,0.00,,---,0.00,VWS V14.01,2013-04-16 00:31:00,
2013-04-15 19:36:00,75.4,70.9,29.68,SE,124,11.0,13.0,86,0.00,,---,0.00,VWS V14.01,2013-04-16 00:36:00,
2013-04-15 19:41:00,75.1,71.0,29.68,ESE,108,10.0,10.0,87,0.00,,---,0.00,VWS V14.01,2013-04-16 00:41:00,
2013-04-15 19:47:00,74.8,71.0,29.68,ESE,108,11.0,12.0,88,0.00,,---,0.00,VWS V14.01,2013-04-16 00:47:00,
2013-04-15 19:52:00,74.7,70.9,29.69,ESE,119,9.0,14.0,88,0.00,,---,0.00,VWS V14.01,2013-04-16 00:52:00,
2013-04-15 19:57:00,74.6,70.8,29.69,ESE,113,9.0,12.0,88,0.00,,---,0.00,VWS V14.01,2013-04-16 00:57:00,
2013-04-15 20:02:00,74.4,70.9,29.69,ESE,103,9.0,12.0,89,0.00,,---,0.00,VWS V14.01,2013-04-16 01:02:00,
2013-04-15 20:07:00,74.2,70.8,29.70,ESE,109,10.0,13.0,89,0.00,,---,0.00,VWS V14.01,2013-04-16 01:07:00,
2013-04-15 20:12:00,74.1,71.0,29.70,ESE,105,6.0,9.0,90,0.00,,---,0.00,VWS V14.01,2013-04-16 01:12:00,
2013-04-15 20:16:00,74.0,70.9,29.70,ESE,113,5.0,10.0,90,0.00,,---,0.00,VWS V14.01,2013-04-16 01:16:00,
2013-04-15 20:21:00,73.9,70.8,29.71,ESE,113,6.0,9.0,90,0.00,,---,0.00,VWS V14.01,2013-04-16 01:21:00,
2013-04-15 20:26:00,73.9,71.1,29.71,East,101,9.0,10.0,91,0.00,,---,0.00,VWS V14.01,2013-04-16 01:26:00,
2013-04-15 20:31:00,73.9,71.1,29.71,SE,133,5.0,11.0,91,0.00,,---,0.00,VWS V14.01,2013-04-16 01:31:00,
2013-04-15 20:36:00,74.0,71.2,29.72,ESE,109,9.0,9.0,91,0.00,,---,0.00,VWS V14.01,2013-04-16 01:36:00,
2013-04-15 20:41:00,73.9,71.1,29.72,ESE,104,10.0,12.0,91,0.00,,---,0.00,VWS V14.01,2013-04-16 01:41:00,
2013-04-15 20:46:00,73.8,71.0,29.72,ESE,119,9.0,11.0,91,0.00,,---,0.00,VWS V14.01,2013-04-16 01:46:00,
2013-04-15 20:51:00,73.7,70.9,29.72,East,101,8.0,13.0,91,0.00,,---,0.00,VWS V14.01,2013-04-16 01:51:00,
2013-04-15 20:56:00,73.5,70.7,29.73,South,171,10.0,15.0,91,0.00,,---,0.00,VWS V14.01,2013-04-16 01:56:00,
2013-04-15 21:01:00,73.4,70.6,29.73,SE,130,14.0,17.0,91,0.00,,---,0.00,VWS V14.01,2013-04-16 02:01:00,
2013-04-15 21:06:00,73.3,70.5,29.73,SE,133,6.0,14.0,91,0.00,,---,0.00,VWS V14.01,2013-04-16 02:06:00,
2013-04-15 21:11:00,73.3,70.5,29.73,ESE,111,15.0,15.0,91,0.00,,---,0.00,VWS V14.01,2013-04-16 02:11:00,
2013-04-15 21:16:00,73.4,70.6,29.73,SE,125,8.0,14.0,91,0.00,,---,0.00,VWS V14.01,2013-04-16 02:16:00,
2013-04-15 21:21:00,73.4,70.6,29.73,SE,140,10.0,10.0,91,0.00,,---,0.00,VWS V14.01,2013-04-16 02:21:00,
2013-04-15 21:26:00,73.5,70.7,29.74,ESE,114,14.0,18.0,91,0.00,,---,0.00,VWS V14.01,2013-04-16 02:26:00,
2013-04-15 21:31:00,73.5,70.7,29.74,SE,136,9.0,13.0,91,0.00,,---,0.00,VWS V14.01,2013-04-16 02:31:00,
2013-04-15 21:36:00,73.5,70.7,29.74,ESE,109,10.0,11.0,91,0.00,,---,0.00,VWS V14.01,2013-04-16 02:36:00,
2013-04-15 21:41:00,73.5,70.7,29.75,ESE,102,6.0,13.0,91,0.00,,---,0.00,VWS V14.01,2013-04-16 02:41:00,
2013-04-15 21:47:00,73.5,70.7,29.75,SE,138,13.0,13.0,91,0.00,,---,0.00,VWS V14.01,2013-04-16 02:47:00,
2013-04-15 21:52:00,73.5,70.7,29.75,SE,129,4.0,13.0,91,0.00,,---,0.00,VWS V14.01,2013-04-16 02:52:00,
2013-04-15 21:57:00,73.5,70.7,29.75,SE,126,9.0,9.0,91,0.00,,---,0.00,VWS V14.01,2013-04-16 02:57:00,
2013-04-15 22:01:00,73.4,70.3,29.75,SE,134,5.0,22.0,90,0.00,,---,0.00,VWS V14.01,2013-04-16 03:01:00,
2013-04-15 22:06:00,73.4,70.3,29.76,ESE,115,13.0,14.0,90,0.00,,---,0.00,VWS V14.01,2013-04-16 03:06:00,
2013-04-15 22:11:00,73.5,70.4,29.76,ESE,105,9.0,12.0,90,0.00,,---,0.00,VWS V14.01,2013-04-16 03:11:00,
2013-04-15 22:16:00,73.6,70.5,29.76,SE,129,12.0,12.0,90,0.00,,---,0.00,VWS V14.01,2013-04-16 03:16:00,
2013-04-15 22:22:00,73.7,70.6,29.75,SE,144,11.0,11.0,90,0.00,,---,0.00,VWS V14.01,2013-04-16 03:22:00,
2013-04-15 22:27:00,73.8,70.7,29.75,SE,125,9.0,13.0,90,0.00,,---,0.00,VWS V14.01,2013-04-16 03:27:00,
2013-04-15 22:31:00,73.8,70.7,29.75,SE,144,15.0,17.0,90,0.00,,---,0.00,VWS V14.01,2013-04-16 03:31:00,
2013-04-15 22:36:00,73.8,70.7,29.75,ESE,120,12.0,14.0,90,0.00,,---,0.00,VWS V14.01,2013-04-16 03:36:00,
2013-04-15 22:41:00,73.7,70.6,29.76,SE,134,6.0,14.0,90,0.00,,---,0.00,VWS V14.01,2013-04-16 03:41:00,
2013-04-15 22:46:00,73.6,70.5,29.76,SE,142,12.0,12.0,90,0.00,,---,0.00,VWS V14.01,2013-04-16 03:46:00,
2013-04-15 22:51:00,73.6,70.5,29.77,ESE,115,4.0,9.0,90,0.00,,---,0.00,VWS V14.01,2013-04-16 03:51:00,
2013-04-15 22:56:00,73.5,70.4,29.77,ESE,117,13.0,13.0,90,0.00,,---,0.00,VWS V14.01,2013-04-16 03:56:00,
2013-04-15 23:00:00,73.5,70.4,29.76,SE,144,4.0,11.0,90,0.00,,---,0.00,VWS V14.01,2013-04-16 04:00:00,
2013-04-15 23:05:00,73.5,70.4,29.76,ESE,114,9.0,12.0,90,0.00,,---,0.00,VWS V14.01,2013-04-16 04:05:00,
2013-04-15 23:10:00,73.5,70.4,29.76,ESE,108,6.0,6.0,90,0.00,,---,0.00,VWS V14.01,2013-04-16 04:10:00,
2013-04-15 23:15:00,73.5,70.4,29.76,SE,145,13.0,13.0,90,0.00,,---,0.00,VWS V14.01,2013-04-16 04:15:00,
2013-04-15 23:20:00,73.5,70.4,29.76,SE,128,13.0,13.0,90,0.00,,---,0.00,VWS V14.01,2013-04-16 04:20:00,
2013-04-15 23:25:00,73.5,70.4,29.77,SE,135,8.0,9.0,90,0.00,,---,0.00,VWS V14.01,2013-04-16 04:25:00,
2013-04-15 23:30:00,73.4,70.3,29.77,SSE,155,5.0,7.0,90,0.00,,---,0.00,VWS V14.01,2013-04-16 04:30:00,
2013-04-15 23:35:00,73.4,70.3,29.77,SE,133,11.0,11.0,90,0.00,,---,0.00,VWS V14.01,2013-04-16 04:35:00,
2013-04-15 23:40:00,73.4,70.3,29.77,SE,140,10.0,15.0,90,0.00,,---,0.00,VWS V14.01,2013-04-16 04:40:00,
2013-04-15 23:45:00,73.5,70.1,29.77,SSE,150,18.0,18.0,89,0.00,,---,0.00,VWS V14.01,2013-04-16 04:45:00,
2013-04-15 23:50:00,73.6,70.2,29.77,SE,133,16.0,20.0,89,0.00,,---,0.00,VWS V14.01,2013-04-16 04:50:00,
2013-04-15 23:55:00,73.7,70.3,29.77,SSE,150,14.0,16.0,89,0.00,,---,0.00,VWS V14.01,2013-04-16 04:55:00,